                ,  0.671,  0.819,  0.966,  1.114,  1.262,  1.410,  1.558,  1.705,  1.853,  2.001,  2.149,  2.297,  2.445,  2.592,  2.740,  2.888,  3.036,  3.184,  3.331,  3.479,  3.627,  3.775,  3.923,  4.070,  4.218,  4.366,  4.514,  4.662,  4.809,  4.957,  5.105,  5.253,  5.401,  5.549,  5.696,  5.844,  5.992,  6.140,  6.288,  6.435,  6.583,  6.731,  6.879,  7.027,  7.174,  7.322,  7.470,  7.618,  7.766,  7.914,  8.061,  8.209,  8.357,  8.505,  8.653,  8.800,  8.948,  9.096,  9.244,  9.392,  9.539,  9.687,  9.835
2005/10/22 00:00,  999.0,  999.0,  999.0,  999.0,  999.0,  999.0,  999.0,  999.0,  999.0,  999.0,  999.0,  999.0,  999.0,  999.0,  999.0,  999.0,  999.0,  999.0,  999.0,  999.0,  999.0,  999.0,  999.0,  999.0,  999.0,  999.0,  999.0,  999.0,  999.0,  999.0,  999.0,  999.0,  999.0,  999.0,  999.0,  999.0,  999.0,  999.0,  999.0,  999.0,  999.0,  999.0,  999.0,  999.0,  999.0,  999.0,  999.0,  999.0,  999.0,  999.0,  999.0,  999.0,  999.0,  999.0,  999.0,  999.0,  999.0,  999.0,  999.0,  999.0,  999.0,  999.0,  999.0
2005/10/22 00:10,  999.0,  999.0,  999.0,  999.0,  999.0,  999.0,  999.0,  999.0,  999.0,  999.0,  999.0,  999.0,  999.0,  999.0,  999.0,  999.0,  999.0,  999.0,  999.0,  999.0,  999.0,  999.0,  999.0,  999.0,  999.0,  999.0,  999.0,  999.0,  999.0,  999.0,  999.0,  999.0,  999.0,  999.0,  999.0,  999.0,  999.0,  999.0,  999.0,  999.0,  999.0,  999.0,  999.0,  999.0,  999.0,  999.0,  999.0,  999.0,  999.0,  999.0,  999.0,  999.0,  999.0,  999.0,  999.0,  999.0,  999.0,  999.0,  999.0,  999.0,  999.0,  999.0,  999.0
2005/10/22 00:20,  999.0,  999.0,  999.0,  999.0,  999.0,  999.0,  999.0,  999.0,  999.0,  999.0,  999.0,  999.0,  999.0,  999.0,  999.0,  999.0,  999.0,  999.0,  999.0,  999.0,  999.0,  999.0,  999.0,  999.0,  999.0,  999.0,  999.0,  999.0,  999.0,  999.0,  999.0,  999.0,  999.0,  999.0,  999.0,  999.0,  999.0,  999.0,  999.0,  999.0,  999.0,  999.0,  999.0,  999.0,  999.0,  999.0,  999.0,  999.0,  999.0,  999.0,  999.0,  999.0,  999.0,  999.0,  999.0,  999.0,  999.0,  999.0,  999.0,  999.0,  999.0,  999.0,  999.0
2005/10/22 00:30,  999.0,  999.0,  999.0,  999.0,  999.0,  999.0,  999.0,  999.0,  999.0,  999.0,  999.0,  999.0,  999.0,  999.0,  999.0,  999.0,  999.0,  999.0,  999.0,  999.0,  999.0,  999.0,  999.0,  999.0,  999.0,  999.0,  999.0,  999.0,  999.0,  999.0,  999.0,  999.0,  999.0,  999.0,  999.0,  999.0,  999.0,  999.0,  999.0,  999.0,  999.0,  999.0,  999.0,  999.0,  999.0,  999.0,  999.0,  999.0,  999.0,  999.0,  999.0,  999.0,  999.0,  999.0,  999.0,  999.0,  999.0,  999.0,  999.0,  999.0,  999.0,  999.0,  999.0
2005/10/22 00:40,  999.0,  999.0,  999.0,  999.0,  999.0,  999.0,  999.0,  999.0,  999.0,  999.0,  999.0,  999.0,  999.0,  999.0,  999.0,  999.0,  999.0,  999.0,  999.0,  999.0,  999.0,  999.0,  999.0,  999.0,  999.0,  999.0,  999.0,  999.0,  999.0,  999.0,  999.0,  999.0,  999.0,  999.0,  999.0,  999.0,  999.0,  999.0,  999.0,  999.0,  999.0,  999.0,  999.0,  999.0,  999.0,  999.0,  999.0,  999.0,  999.0,  999.0,  999.0,  999.0,  999.0,  999.0,  999.0,  999.0,  999.0,  999.0,  999.0,  999.0,  999.0,  999.0,  999.0
2005/10/22 00:50,  999.0,  999.0,  999.0,  999.0,  999.0,  999.0,  999.0,  999.0,  999.0,  999.0,  999.0,  999.0,  999.0,  999.0,  999.0,  999.0,  999.0,  999.0,  999.0,  999.0,  999.0,  999.0,  999.0,  999.0,  999.0,  999.0,  999.0,  999.0,  999.0,  999.0,  999.0,  999.0,  999.0,  999.0,  999.0,  999.0,  999.0,  999.0,  999.0,  999.0,  999.0,  999.0,  999.0,  999.0,  999.0,  999.0,  999.0,  999.0,  999.0,  999.0,  999.0,  999.0,  999.0,  999.0,  999.0,  999.0,  999.0,  999.0,  999.0,  999.0,  999.0,  999.0,  999.0
2005/10/22 01:00,  999.0,  999.0,  999.0,  999.0,  999.0,  999.0,  999.0,  999.0,  999.0,  999.0,  999.0,  999.0,  999.0,  999.0,  999.0,  999.0,  999.0,  999.0,  999.0,  999.0,  999.0,  999.0,  999.0,  999.0,  999.0,  999.0,  999.0,  999.0,  999.0,  999.0,  999.0,  999.0,  999.0,  999.0,  999.0,  999.0,  999.0,  999.0,  999.0,  999.0,  999.0,  999.0,  999.0,  999.0,  999.0,  999.0,  999.0,  999.0,  999.0,  999.0,  999.0,  999.0,  999.0,  999.0,  999.0,  999.0,  999.0,  999.0,  999.0,  999.0,  999.0,  999.0,  999.0
2005/10/22 01:10,  999.0,  999.0,  999.0,  999.0,  999.0,  999.0,  999.0,  999.0,  999.0,  999.0,  999.0,  999.0,  999.0,  999.0,  999.0,  999.0,  999.0,  999.0,  999.0,  999.0,  999.0,  999.0,  999.0,  999.0,  999.0,  999.0,  999.0,  999.0,  999.0,  999.0,  999.0,  999.0,  999.0,  999.0,  999.0,  999.0,  999.0,  999.0,  999.0,  999.0,  999.0,  999.0,  999.0,  999.0,  999.0,  999.0,  999.0,  999.0,  999.0,  999.0,  999.0,  999.0,  999.0,  999.0,  999.0,  999.0,  999.0,  999.0,  999.0,  999.0,  999.0,  999.0,  999.0
2005/10/22 01:20,  999.0,  999.0,  999.0,  999.0,  999.0,  999.0,  999.0,  999.0,  999.0,  999.0,  999.0,  999.0,  999.0,  999.0,  999.0,  999.0,  999.0,  999.0,  999.0,  999.0,  999.0,  999.0,  999.0,  999.0,  999.0,  999.0,  999.0,  999.0,  999.0,  999.0,  999.0,  999.0,  999.0,  999.0,  999.0,  999.0,  999.0,  999.0,  999.0,  999.0,  999.0,  999.0,  999.0,  999.0,  999.0,  999.0,  999.0,  999.0,  999.0,  999.0,  999.0,  999.0,  999.0,  999.0,  999.0,  999.0,  999.0,  999.0,  999.0,  999.0,  999.0,  999.0,  999.0
2005/10/22 01:30,  999.0,  999.0,  999.0,  999.0,  999.0,  999.0,  999.0,  999.0,  999.0,  999.0,  999.0,  999.0,  999.0,  999.0,  999.0,  999.0,  999.0,  999.0,  999.0,  999.0,  999.0,  999.0,  999.0,  999.0,  999.0,  999.0,  999.0,  999.0,  999.0,  999.0,  999.0,  999.0,  999.0,  999.0,  999.0,  999.0,  999.0,  999.0,  999.0,  999.0,  999.0,  999.0,  999.0,  999.0,  999.0,  999.0,  999.0,  999.0,  999.0,  999.0,  999.0,  999.0,  999.0,  999.0,  999.0,  999.0,  999.0,  999.0,  999.0,  999.0,  999.0,  999.0,  999.0
2005/10/22 01:40,  999.0,  999.0,  999.0,  999.0,  999.0,  999.0,  999.0,  999.0,  999.0,  999.0,  999.0,  999.0,  999.0,  999.0,  999.0,  999.0,  999.0,  999.0,  999.0,  999.0,  999.0,  999.0,  999.0,  999.0,  999.0,  999.0,  999.0,  999.0,  999.0,  999.0,  999.0,  999.0,  999.0,  999.0,  999.0,  999.0,  999.0,  999.0,  999.0,  999.0,  999.0,  999.0,  999.0,  999.0,  999.0,  999.0,  999.0,  999.0,  999.0,  999.0,  999.0,  999.0,  999.0,  999.0,  999.0,  999.0,  999.0,  999.0,  999.0,  999.0,  999.0,  999.0,  999.0
2005/10/22 01:50,  999.0,  999.0,  999.0,  999.0,  999.0,  999.0,  999.0,  999.0,  999.0,  999.0,  999.0,  999.0,  999.0,  999.0,  999.0,  999.0,  999.0,  999.0,  999.0,  999.0,  999.0,  999.0,  999.0,  999.0,  999.0,  999.0,  999.0,  999.0,  999.0,  999.0,  999.0,  999.0,  999.0,  999.0,  999.0,  999.0,  999.0,  999.0,  999.0,  999.0,  999.0,  999.0,  999.0,  999.0,  999.0,  999.0,  999.0,  999.0,  999.0,  999.0,  999.0,  999.0,  999.0,  999.0,  999.0,  999.0,  999.0,  999.0,  999.0,  999.0,  999.0,  999.0,  999.0
2005/10/22 02:00,  999.0,  999.0,  999.0,  999.0,  999.0,  999.0,  999.0,  999.0,  999.0,  999.0,  999.0,  999.0,  999.0,  999.0,  999.0,  999.0,  999.0,  999.0,  999.0,  999.0,  999.0,  999.0,  999.0,  999.0,  999.0,  999.0,  999.0,  999.0,  999.0,  999.0,  999.0,  999.0,  999.0,  999.0,  999.0,  999.0,  999.0,  999.0,  999.0,  999.0,  999.0,  999.0,  999.0,  999.0,  999.0,  999.0,  999.0,  999.0,  999.0,  999.0,  999.0,  999.0,  999.0,  999.0,  999.0,  999.0,  999.0,  999.0,  999.0,  999.0,  999.0,  999.0,  999.0
2005/10/22 02:10,  999.0,  999.0,  999.0,  999.0,  999.0,  999.0,  999.0,  999.0,  999.0,  999.0,  999.0,  999.0,  999.0,  999.0,  999.0,  999.0,  999.0,  999.0,  999.0,  999.0,  999.0,  999.0,  999.0,  999.0,  999.0,  999.0,  999.0,  999.0,  999.0,  999.0,  999.0,  999.0,  999.0,  999.0,  999.0,  999.0,  999.0,  999.0,  999.0,  999.0,  999.0,  999.0,  999.0,  999.0,  999.0,  999.0,  999.0,  999.0,  999.0,  999.0,  999.0,  999.0,  999.0,  999.0,  999.0,  999.0,  999.0,  999.0,  999.0,  999.0,  999.0,  999.0,  999.0
2005/10/22 02:20,  999.0,  999.0,  999.0,  999.0,  999.0,  999.0,  999.0,  999.0,  999.0,  999.0,  999.0,  999.0,  999.0,  999.0,  999.0,  999.0,  999.0,  999.0,  999.0,  999.0,  999.0,  999.0,  999.0,  999.0,  999.0,  999.0,  999.0,  999.0,  999.0,  999.0,  999.0,  999.0,  999.0,  999.0,  999.0,  999.0,  999.0,  999.0,  999.0,  999.0,  999.0,  999.0,  999.0,  999.0,  999.0,  999.0,  999.0,  999.0,  999.0,  999.0,  999.0,  999.0,  999.0,  999.0,  999.0,  999.0,  999.0,  999.0,  999.0,  999.0,  999.0,  999.0,  999.0
2005/10/22 02:30,  999.0,  999.0,  999.0,  999.0,  999.0,  999.0,  999.0,  999.0,  999.0,  999.0,  999.0,  999.0,  999.0,  999.0,  999.0,  999.0,  999.0,  999.0,  999.0,  999.0,  999.0,  999.0,  999.0,  999.0,  999.0,  999.0,  999.0,  999.0,  999.0,  999.0,  999.0,  999.0,  999.0,  999.0,  999.0,  999.0,  999.0,  999.0,  999.0,  999.0,  999.0,  999.0,  999.0,  999.0,  999.0,  999.0,  999.0,  999.0,  999.0,  999.0,  999.0,  999.0,  999.0,  999.0,  999.0,  999.0,  999.0,  999.0,  999.0,  999.0,  999.0,  999.0,  999.0
2005/10/22 02:40,  999.0,  999.0,  999.0,  999.0,  999.0,  999.0,  999.0,  999.0,  999.0,  999.0,  999.0,  999.0,  999.0,  999.0,  999.0,  999.0,  999.0,  999.0,  999.0,  999.0,  999.0,  999.0,  999.0,  999.0,  999.0,  999.0,  999.0,  999.0,  999.0,  999.0,  999.0,  999.0,  999.0,  999.0,  999.0,  999.0,  999.0,  999.0,  999.0,  999.0,  999.0,  999.0,  999.0,  999.0,  999.0,  999.0,  999.0,  999.0,  999.0,  999.0,  999.0,  999.0,  999.0,  999.0,  999.0,  999.0,  999.0,  999.0,  999.0,  999.0,  999.0,  999.0,  999.0
2005/10/22 02:50,  999.0,  999.0,  999.0,  999.0,  999.0,  999.0,  999.0,  999.0,  999.0,  999.0,  999.0,  999.0,  999.0,  999.0,  999.0,  999.0,  999.0,  999.0,  999.0,  999.0,  999.0,  999.0,  999.0,  999.0,  999.0,  999.0,  999.0,  999.0,  999.0,  999.0,  999.0,  999.0,  999.0,  999.0,  999.0,  999.0,  999.0,  999.0,  999.0,  999.0,  999.0,  999.0,  999.0,  999.0,  999.0,  999.0,  999.0,  999.0,  999.0,  999.0,  999.0,  999.0,  999.0,  999.0,  999.0,  999.0,  999.0,  999.0,  999.0,  999.0,  999.0,  999.0,  999.0
2005/10/22 03:00,  999.0,  999.0,  999.0,  999.0,  999.0,  999.0,  999.0,  999.0,  999.0,  999.0,  999.0,  999.0,  999.0,  999.0,  999.0,  999.0,  999.0,  999.0,  999.0,  999.0,  999.0,  999.0,  999.0,  999.0,  999.0,  999.0,  999.0,  999.0,  999.0,  999.0,  999.0,  999.0,  999.0,  999.0,  999.0,  999.0,  999.0,  999.0,  999.0,  999.0,  999.0,  999.0,  999.0,  999.0,  999.0,  999.0,  999.0,  999.0,  999.0,  999.0,  999.0,  999.0,  999.0,  999.0,  999.0,  999.0,  999.0,  999.0,  999.0,  999.0,  999.0,  999.0,  999.0
2005/10/22 03:10,  999.0,  999.0,  999.0,  999.0,  999.0,  999.0,  999.0,  999.0,  999.0,  999.0,  999.0,  999.0,  999.0,  999.0,  999.0,  999.0,  999.0,  999.0,  999.0,  999.0,  999.0,  999.0,  999.0,  999.0,  999.0,  999.0,  999.0,  999.0,  999.0,  999.0,  999.0,  999.0,  999.0,  999.0,  999.0,  999.0,  999.0,  999.0,  999.0,  999.0,  999.0,  999.0,  999.0,  999.0,  999.0,  999.0,  999.0,  999.0,  999.0,  999.0,  999.0,  999.0,  999.0,  999.0,  999.0,  999.0,  999.0,  999.0,  999.0,  999.0,  999.0,  999.0,  999.0
2005/10/22 03:20,  999.0,  999.0,  999.0,  999.0,  999.0,  999.0,  999.0,  999.0,  999.0,  999.0,  999.0,  999.0,  999.0,  999.0,  999.0,  999.0,  999.0,  999.0,  999.0,  999.0,  999.0,  999.0,  999.0,  999.0,  999.0,  999.0,  999.0,  999.0,  999.0,  999.0,  999.0,  999.0,  999.0,  999.0,  999.0,  999.0,  999.0,  999.0,  999.0,  999.0,  999.0,  999.0,  999.0,  999.0,  999.0,  999.0,  999.0,  999.0,  999.0,  999.0,  999.0,  999.0,  999.0,  999.0,  999.0,  999.0,  999.0,  999.0,  999.0,  999.0,  999.0,  999.0,  999.0
2005/10/22 03:30,  999.0,  999.0,  999.0,  999.0,  999.0,  999.0,  999.0,  999.0,  999.0,  999.0,  999.0,  999.0,  999.0,  999.0,  999.0,  999.0,  999.0,  999.0,  999.0,  999.0,  999.0,  999.0,  999.0,  999.0,  999.0,  999.0,  999.0,  999.0,  999.0,  999.0,  999.0,  999.0,  999.0,  999.0,  999.0,  999.0,  999.0,  999.0,  999.0,  999.0,  999.0,  999.0,  999.0,  999.0,  999.0,  999.0,  999.0,  999.0,  999.0,  999.0,  999.0,  999.0,  999.0,  999.0,  999.0,  999.0,  999.0,  999.0,  999.0,  999.0,  999.0,  999.0,  999.0
2005/10/22 03:40,  999.0,  999.0,  999.0,  999.0,  999.0,  999.0,  999.0,  999.0,  999.0,  999.0,  999.0,  999.0,  999.0,  999.0,  999.0,  999.0,  999.0,  999.0,  999.0,  999.0,  999.0,  999.0,  999.0,  999.0,  999.0,  999.0,  999.0,  999.0,  999.0,  999.0,  999.0,  999.0,  999.0,  999.0,  999.0,  999.0,  999.0,  999.0,  999.0,  999.0,  999.0,  999.0,  999.0,  999.0,  999.0,  999.0,  999.0,  999.0,  999.0,  999.0,  999.0,  999.0,  999.0,  999.0,  999.0,  999.0,  999.0,  999.0,  999.0,  999.0,  999.0,  999.0,  999.0
2005/10/22 03:50,  999.0,  999.0,  999.0,  999.0,  999.0,  999.0,  999.0,  999.0,  999.0,  999.0,  999.0,  999.0,  999.0,  999.0,  999.0,  999.0,  999.0,  999.0,  999.0,  999.0,  999.0,  999.0,  999.0,  999.0,  999.0,  999.0,  999.0,  999.0,  999.0,  999.0,  999.0,  999.0,  999.0,  999.0,  999.0,  999.0,  999.0,  999.0,  999.0,  999.0,  999.0,  999.0,  999.0,  999.0,  999.0,  999.0,  999.0,  999.0,  999.0,  999.0,  999.0,  999.0,  999.0,  999.0,  999.0,  999.0,  999.0,  999.0,  999.0,  999.0,  999.0,  999.0,  999.0
2005/10/22 04:00,  999.0,  999.0,  999.0,  999.0,  999.0,  999.0,  999.0,  999.0,  999.0,  999.0,  999.0,  999.0,  999.0,  999.0,  999.0,  999.0,  999.0,  999.0,  999.0,  999.0,  999.0,  999.0,  999.0,  999.0,  999.0,  999.0,  999.0,  999.0,  999.0,  999.0,  999.0,  999.0,  999.0,  999.0,  999.0,  999.0,  999.0,  999.0,  999.0,  999.0,  999.0,  999.0,  999.0,  999.0,  999.0,  999.0,  999.0,  999.0,  999.0,  999.0,  999.0,  999.0,  999.0,  999.0,  999.0,  999.0,  999.0,  999.0,  999.0,  999.0,  999.0,  999.0,  999.0
2005/10/22 04:10,  999.0,  999.0,  999.0,  999.0,  999.0,  999.0,  999.0,  999.0,  999.0,  999.0,  999.0,  999.0,  999.0,  999.0,  999.0,  999.0,  999.0,  999.0,  999.0,  999.0,  999.0,  999.0,  999.0,  999.0,  999.0,  999.0,  999.0,  999.0,  999.0,  999.0,  999.0,  999.0,  999.0,  999.0,  999.0,  999.0,  999.0,  999.0,  999.0,  999.0,  999.0,  999.0,  999.0,  999.0,  999.0,  999.0,  999.0,  999.0,  999.0,  999.0,  999.0,  999.0,  999.0,  999.0,  999.0,  999.0,  999.0,  999.0,  999.0,  999.0,  999.0,  999.0,  999.0
2005/10/22 04:20,  999.0,  999.0,  999.0,  999.0,  999.0,  999.0,  999.0,  999.0,  999.0,  999.0,  999.0,  999.0,  999.0,  999.0,  999.0,  999.0,  999.0,  999.0,  999.0,  999.0,  999.0,  999.0,  999.0,  999.0,  999.0,  999.0,  999.0,  999.0,  999.0,  999.0,  999.0,  999.0,  999.0,  999.0,  999.0,  999.0,  999.0,  999.0,  999.0,  999.0,  999.0,  999.0,  999.0,  999.0,  999.0,  999.0,  999.0,  999.0,  999.0,  999.0,  999.0,  999.0,  999.0,  999.0,  999.0,  999.0,  999.0,  999.0,  999.0,  999.0,  999.0,  999.0,  999.0
2005/10/22 04:30,  999.0,  999.0,  999.0,  999.0,  999.0,  999.0,  999.0,  999.0,  999.0,  999.0,  999.0,  999.0,  999.0,  999.0,  999.0,  999.0,  999.0,  999.0,  999.0,  999.0,  999.0,  999.0,  999.0,  999.0,  999.0,  999.0,  999.0,  999.0,  999.0,  999.0,  999.0,  999.0,  999.0,  999.0,  999.0,  999.0,  999.0,  999.0,  999.0,  999.0,  999.0,  999.0,  999.0,  999.0,  999.0,  999.0,  999.0,  999.0,  999.0,  999.0,  999.0,  999.0,  999.0,  999.0,  999.0,  999.0,  999.0,  999.0,  999.0,  999.0,  999.0,  999.0,  999.0
2005/10/22 04:40,  999.0,  999.0,  999.0,  999.0,  999.0,  999.0,  999.0,  999.0,  999.0,  999.0,  999.0,  999.0,  999.0,  999.0,  999.0,  999.0,  999.0,  999.0,  999.0,  999.0,  999.0,  999.0,  999.0,  999.0,  999.0,  999.0,  999.0,  999.0,  999.0,  999.0,  999.0,  999.0,  999.0,  999.0,  999.0,  999.0,  999.0,  999.0,  999.0,  999.0,  999.0,  999.0,  999.0,  999.0,  999.0,  999.0,  999.0,  999.0,  999.0,  999.0,  999.0,  999.0,  999.0,  999.0,  999.0,  999.0,  999.0,  999.0,  999.0,  999.0,  999.0,  999.0,  999.0
2005/10/22 04:50,  999.0,  999.0,  999.0,  999.0,  999.0,  999.0,  999.0,  999.0,  999.0,  999.0,  999.0,  999.0,  999.0,  999.0,  999.0,  999.0,  999.0,  999.0,  999.0,  999.0,  999.0,  999.0,  999.0,  999.0,  999.0,  999.0,  999.0,  999.0,  999.0,  999.0,  999.0,  999.0,  999.0,  999.0,  999.0,  999.0,  999.0,  999.0,  999.0,  999.0,  999.0,  999.0,  999.0,  999.0,  999.0,  999.0,  999.0,  999.0,  999.0,  999.0,  999.0,  999.0,  999.0,  999.0,  999.0,  999.0,  999.0,  999.0,  999.0,  999.0,  999.0,  999.0,  999.0
2005/10/22 05:00,  999.0,  999.0,  999.0,  999.0,  999.0,  999.0,  999.0,  999.0,  999.0,  999.0,  999.0,  999.0,  999.0,  999.0,  999.0,  999.0,  999.0,  999.0,  999.0,  999.0,  999.0,  999.0,  999.0,  999.0,  999.0,  999.0,  999.0,  999.0,  999.0,  999.0,  999.0,  999.0,  999.0,  999.0,  999.0,  999.0,  999.0,  999.0,  999.0,  999.0,  999.0,  999.0,  999.0,  999.0,  999.0,  999.0,  999.0,  999.0,  999.0,  999.0,  999.0,  999.0,  999.0,  999.0,  999.0,  999.0,  999.0,  999.0,  999.0,  999.0,  999.0,  999.0,  999.0
2005/10/22 05:10,  999.0,  999.0,  999.0,  999.0,  999.0,  999.0,  999.0,  999.0,  999.0,  999.0,  999.0,  999.0,  999.0,  999.0,  999.0,  999.0,  999.0,  999.0,  999.0,  999.0,  999.0,  999.0,  999.0,  999.0,  999.0,  999.0,  999.0,  999.0,  999.0,  999.0,  999.0,  999.0,  999.0,  999.0,  999.0,  999.0,  999.0,  999.0,  999.0,  999.0,  999.0,  999.0,  999.0,  999.0,  999.0,  999.0,  999.0,  999.0,  999.0,  999.0,  999.0,  999.0,  999.0,  999.0,  999.0,  999.0,  999.0,  999.0,  999.0,  999.0,  999.0,  999.0,  999.0
2005/10/22 05:20,  999.0,    4.9,  999.0,    6.9,    7.9,    8.9,    8.7,  999.0,    8.3,    8.3,    9.4,   10.5,   10.8,   10.7,  999.0,   10.0,    9.8,  999.0,  999.0,  999.0,  999.0,  999.0,  999.0,   36.7,   36.2,  999.0,  999.0,  999.0,  999.0,  999.0,  999.0,  999.0,   55.2,   55.2,   55.3,   55.4,   55.2,   55.2,   55.2,   55.4,   55.2,   55.2,  999.0,   55.1,   55.3,   55.3,   55.3,   55.3,   55.1,  999.0,   55.2,  999.0,  999.0,  999.0,   55.3,   55.2,  999.0,  999.0,  999.0,  999.0,  999.0,  999.0,  999.0
2005/10/22 05:30,  999.0,  999.0,    4.6,    7.0,    8.0,    9.2,    8.8,    8.5,    9.3,    8.3,    9.0,    9.8,   10.4,   10.9,   10.8,   10.6,   10.0,    8.5,    9.7,  999.0,  999.0,  999.0,  999.0,  999.0,  999.0,  999.0,  999.0,  999.0,  999.0,  999.0,  999.0,  999.0,  999.0,   55.3,  999.0,   50.7,   55.2,  999.0,  999.0,   55.2,   55.2,   55.2,  999.0,  999.0,   55.3,   55.3,  999.0,   55.1,   27.8,   18.4,  999.0,   27.7,  999.0,  999.0,   27.7,  999.0,   27.6,   27.9,    0.0,  999.0,   27.6,  999.0,  999.0
2005/10/22 05:40,  999.0,    5.3,  999.0,    0.5,  999.0,    9.2,  999.0,  999.0,  999.0,    8.5,    6.9,    9.7,   10.9,   11.0,   10.8,   10.0,   10.7,    9.8,  999.0,  999.0,  999.0,  999.0,  999.0,  999.0,  999.0,  999.0,  999.0,  999.0,  999.0,   55.2,   55.2,   55.2,   55.2,   55.2,   55.2,   55.2,   55.2,   55.2,   55.2,   55.2,   55.2,   55.2,   55.3,   55.2,   55.5,   55.5,   55.3,   55.3,   55.3,   55.3,   55.3,   55.6,  999.0,  999.0,  999.0,  999.0,   55.5,  999.0,  999.0,  999.0,  999.0,  999.0,  999.0
2005/10/22 05:50,  999.0,    5.0,    6.3,    7.5,  999.0,    6.4,  999.0,    8.2,    7.6,    8.4,    9.0,    9.9,   10.3,   10.2,   10.2,   11.2,   10.5,   10.4,   10.4,  999.0,  999.0,  999.0,  999.0,  999.0,  999.0,  999.0,  999.0,  999.0,  999.0,   55.1,   55.2,   55.2,   55.2,   55.2,   55.2,   55.2,   55.2,   55.2,   55.2,   55.3,   55.2,   55.3,   55.3,   55.3,   55.3,   55.3,   55.3,   55.3,   55.3,   55.4,   55.3,   55.4,   55.4,   55.4,   55.6,   55.4,   55.3,   55.2,  999.0,  999.0,  999.0,  999.0,  999.0
2005/10/22 06:00,  999.0,  999.0,    6.3,    6.0,    7.6,    8.2,    9.4,    9.8,    9.9,    9.3,    9.6,   10.4,   10.7,   10.4,   10.6,   10.8,   10.6,    9.5,    9.7,    9.4,  999.0,  999.0,  999.0,  999.0,  999.0,  999.0,  999.0,  999.0,  999.0,   55.2,   55.2,   55.1,   55.2,   55.2,   55.2,   55.2,   55.2,   55.3,   55.2,   55.2,   55.2,   55.3,   55.3,   55.2,   55.2,   55.3,   55.3,   55.3,   55.4,   55.4,   55.3,   55.3,   55.2,   55.3,   55.4,   55.3,   55.3,   55.3,  999.0,   55.3,  999.0,  999.0,  999.0
2005/10/22 06:10,  999.0,  999.0,    6.7,    7.2,    8.2,    8.6,    9.3,    9.5,    9.7,    9.9,   10.6,   10.5,   11.0,   10.7,   10.7,   10.7,   10.7,  999.0,  999.0,  999.0,  999.0,  999.0,  999.0,  999.0,  999.0,   55.2,  999.0,   55.1,   55.1,   55.2,   55.2,   55.2,   55.2,   55.2,   55.2,   55.2,   55.4,   55.3,   55.2,   55.2,   55.3,   55.2,   55.3,   55.3,   55.3,   55.3,   55.4,   55.3,   55.4,   55.4,   55.6,   55.5,   55.5,   55.2,   55.4,   55.4,   55.6,   55.8,   55.7,  999.0,  999.0,  999.0,  999.0
2005/10/22 06:20,  999.0,    5.7,    6.6,    7.7,    8.5,    8.4,    9.3,    9.6,    9.1,    9.5,    9.8,    9.8,   10.3,   10.7,   10.5,   10.6,   10.7,  999.0,  999.0,  999.0,  999.0,  999.0,  999.0,  999.0,  999.0,   55.3,   55.2,   55.2,   55.2,   55.2,   55.2,   55.2,   55.1,   55.1,   55.2,   55.2,   55.2,   55.3,   55.2,   55.2,   55.2,   55.2,   55.2,   55.3,   55.1,   55.2,   55.3,   55.2,   55.1,   55.2,   55.4,   55.2,   55.4,   55.1,   55.1,   55.4,   55.1,   55.1,  999.0,  999.0,  999.0,  999.0,  999.0
2005/10/22 06:30,  999.0,    6.4,    7.9,    8.9,    9.1,    8.6,   10.0,   10.6,   10.0,    9.3,    9.5,   10.0,    9.5,    9.8,   10.8,   10.8,   10.5,  999.0,  999.0,  999.0,  999.0,  999.0,  999.0,  999.0,  999.0,   55.1,   55.2,   55.2,   55.1,   55.1,   55.2,   55.2,   55.2,   55.2,   55.2,   55.3,   55.2,   55.2,   55.2,   55.2,   55.2,   55.3,   55.3,   55.2,   55.3,   55.3,   55.3,   55.3,   55.3,   55.4,   55.4,   55.6,   55.5,   55.4,   55.3,   55.3,   55.6,   55.8,   55.5,   55.2,   55.7,   55.3,   55.4
2005/10/22 06:40,  999.0,    5.8,    7.7,    8.6,    8.4,    8.6,    9.4,    9.6,    9.4,    9.3,    9.5,    8.6,    8.3,    8.3,    9.4,   10.4,   10.3,  999.0,  999.0,  999.0,  999.0,  999.0,  999.0,  999.0,  999.0,   55.4,  999.0,  999.0,   55.2,   55.1,   55.1,   55.1,   55.2,   55.2,   55.2,   55.1,   55.2,   55.2,   55.2,   55.5,   55.1,   55.2,   55.2,   55.3,   55.3,   55.3,   55.3,   55.3,   55.3,   55.4,   55.2,  999.0,   55.4,   55.3,   55.4,   55.5,   55.4,   55.6,   55.2,  999.0,   55.4,   55.6,   55.4
2005/10/22 06:50,  999.0,    6.2,    7.9,    9.2,    9.2,    9.4,    9.3,    9.0,    8.7,    8.7,    8.9,  999.0,    8.9,    9.4,    9.8,   10.1,   10.2,  999.0,  999.0,  999.0,  999.0,  999.0,  999.0,  999.0,  999.0,  999.0,  999.0,  999.0,  999.0,   55.1,   55.1,   55.2,   55.2,   55.3,   55.2,   55.3,   55.3,   55.2,   55.3,   55.2,   55.3,   55.3,   55.2,   55.3,   55.3,   55.3,   55.4,   55.4,   55.6,   55.5,   55.2,   55.5,   55.3,   55.3,   55.2,   55.5,   55.7,   55.6,  999.0,  999.0,   55.5,   55.3,   55.4
2005/10/22 07:00,  999.0,    6.7,    8.3,    9.7,   10.0,    9.6,    9.6,    8.7,    8.4,    8.8,  999.0,  999.0,  999.0,  999.0,    8.6,   10.0,  999.0,  999.0,  999.0,  999.0,  999.0,  999.0,  999.0,  999.0,  999.0,  999.0,  999.0,  999.0,  999.0,  999.0,  999.0,  999.0,  999.0,  999.0,   55.3,   55.3,   55.2,   55.2,   55.3,   55.3,   55.2,   55.2,   55.3,   55.3,   55.3,   55.2,   55.4,   55.3,   55.3,   55.4,   55.3,   55.4,   55.4,   55.6,   55.4,   55.4,   55.3,   55.4,   55.5,   55.5,  999.0,  999.0,   55.3
2005/10/22 07:10,  999.0,    6.3,    8.0,    9.0,    9.1,    9.4,    9.6,    8.9,    9.1,    9.3,    8.8,  999.0,  999.0,  999.0,  999.0,  999.0,  999.0,  999.0,  999.0,  999.0,  999.0,  999.0,  999.0,  999.0,  999.0,  999.0,   54.9,  999.0,   55.2,  999.0,   55.2,   55.2,   55.2,   55.1,   55.2,   55.3,   55.2,   55.2,   55.2,   55.1,   55.2,   55.2,   55.3,   55.3,   55.3,   55.3,   55.4,   55.3,   55.4,   55.6,   55.5,   55.4,   55.4,   55.4,   55.5,   55.5,   55.5,   55.6,   55.3,  999.0,  999.0,  999.0,   55.3
2005/10/22 07:20,  999.0,    7.2,    8.7,    9.5,    9.3,    9.7,    9.2,    9.3,    9.8,    9.4,  999.0,  999.0,  999.0,  999.0,  999.0,  999.0,  999.0,  999.0,  999.0,  999.0,  999.0,  999.0,  999.0,   55.2,  999.0,   55.2,   55.2,  999.0,   55.3,   55.2,   55.2,   55.2,   55.2,   55.2,   55.2,   55.1,   55.2,   55.3,   55.2,   55.1,   55.2,   55.2,   55.2,   55.3,   55.3,   55.2,   55.3,   55.2,   55.2,   55.3,   55.3,   55.2,   55.3,   55.3,  999.0,   55.4,   55.5,  999.0,   55.4,   55.5,  999.0,  999.0,   55.3
2005/10/22 07:30,  999.0,    6.8,    8.8,    9.4,    9.5,   10.2,   10.2,   10.4,   10.2,    9.8,  999.0,  999.0,  999.0,  999.0,  999.0,  999.0,  999.0,  999.0,  999.0,  999.0,  999.0,  999.0,  999.0,   55.2,   55.2,   55.2,   55.1,   55.1,   55.1,   55.1,   55.2,   55.2,   55.1,   55.2,   55.2,   55.2,   55.2,   55.2,   55.2,   55.3,   55.2,   55.2,   55.2,   55.4,   55.3,   55.3,   55.3,   55.3,   55.4,   55.2,   55.3,   55.4,   55.3,   55.3,   55.5,   55.5,   55.4,   55.4,  999.0,   55.1,   55.7,  999.0,  999.0
2005/10/22 07:40,  999.0,    6.9,    8.3,    8.7,    9.3,    9.5,   10.2,   10.2,   11.0,   10.6,    9.3,  999.0,  999.0,  999.0,  999.0,  999.0,  999.0,  999.0,  999.0,  999.0,  999.0,  999.0,  999.0,   55.2,   55.1,   55.1,   55.1,   55.2,   55.1,   55.2,   55.2,   55.1,   55.2,   55.2,   55.2,   55.2,   55.2,   55.2,   55.2,   55.2,   55.2,   55.2,   55.3,   55.2,   55.2,   55.3,   55.3,   55.4,   55.4,   55.3,   55.4,   55.4,   55.3,   55.5,   55.4,   55.4,   55.4,   55.2,   55.4,   55.5,   55.3,   55.7,   55.4
2005/10/22 07:50,  999.0,    6.9,    8.7,    9.4,    9.8,   10.0,   11.4,   11.9,   11.4,   11.3,   11.1,   10.2,    8.8,  999.0,  999.0,  999.0,  999.0,  999.0,  999.0,  999.0,  999.0,  999.0,  999.0,  999.0,  999.0,  999.0,  999.0,   55.1,   55.1,   55.2,   55.0,   55.1,   55.2,   55.2,   55.2,   55.1,   55.2,   55.2,   55.2,   55.2,   55.3,   55.2,   55.2,   55.2,   55.3,   55.2,   55.3,   55.3,   55.3,   55.3,   55.3,   55.3,   55.3,   55.4,   55.3,   55.3,   55.1,   55.5,   55.5,  999.0,   55.7,   55.3,  999.0
2005/10/22 08:00,  999.0,    7.2,    9.1,    9.9,    9.7,   10.0,   10.9,   11.7,   11.4,   11.2,   11.3,   11.2,  999.0,  999.0,  999.0,  999.0,  999.0,  999.0,  999.0,  999.0,  999.0,  999.0,  999.0,  999.0,  999.0,  999.0,  999.0,  999.0,  999.0,   55.2,   55.3,   55.2,   55.2,   55.2,   55.1,   55.2,   55.2,   55.2,   55.2,   55.2,   55.3,   55.2,   55.2,   55.3,   55.3,   55.3,   55.3,   55.3,   55.4,   55.3,   55.4,   55.3,   55.3,   55.2,  999.0,   55.4,   55.3,  999.0,   55.0,   55.5,  999.0,  999.0,   55.4
2005/10/22 08:10,  999.0,    5.9,    9.2,    9.8,   10.4,   11.6,   11.9,   11.6,   11.0,   11.1,   11.0,   11.1,   10.2,    8.4,  999.0,  999.0,  999.0,  999.0,  999.0,  999.0,  999.0,  999.0,  999.0,  999.0,  999.0,  999.0,   55.1,   55.2,   55.1,  999.0,   55.2,   55.2,   55.2,   55.1,   55.3,   55.3,   55.2,   55.2,   55.2,   55.3,   55.2,   55.3,   55.3,   55.4,   55.3,   55.3,   55.6,   55.3,   55.4,   55.5,   55.6,   55.3,   55.4,  999.0,   55.5,   55.3,  999.0,   55.8,  999.0,  999.0,  999.0,  999.0,  999.0
2005/10/22 08:20,  999.0,    7.4,    9.3,   10.2,   10.9,   10.9,   11.5,   10.7,   10.2,   10.5,   10.3,   10.4,    9.8,    9.1,    9.7,    9.9,   11.4,   12.4,  999.0,   13.0,  999.0,  999.0,  999.0,  999.0,  999.0,  999.0,  999.0,  999.0,  999.0,  999.0,  999.0,   55.2,   55.1,   55.1,   55.1,   55.1,   55.2,   55.2,   55.2,   55.2,   55.2,   55.2,   55.3,   55.3,   55.3,   55.4,   55.3,   55.3,   55.3,   55.4,   55.2,   55.5,   55.4,   55.4,   55.3,   55.4,   55.4,   55.4,   55.5,   55.3,   55.4,   55.6,   55.5
2005/10/22 08:30,  999.0,    6.8,    8.3,    9.0,    8.3,   10.3,   10.5,   10.5,   10.8,   10.4,   10.1,   10.1,   10.9,   11.3,   11.9,   12.0,   13.3,  999.0,   14.1,  999.0,  999.0,  999.0,  999.0,  999.0,   32.7,   32.4,  999.0,  999.0,  999.0,  999.0,  999.0,  999.0,  999.0,   55.2,   55.1,   55.2,   55.2,   55.2,   55.1,   55.2,   55.2,   55.3,   55.3,   55.4,   55.3,   55.4,   55.4,   55.3,   55.4,   55.3,   55.5,   55.4,   55.4,   55.4,   55.4,   55.3,  999.0,   55.3,  999.0,   55.3,  999.0,   55.1,  999.0
2005/10/22 08:40,  999.0,    6.6,    7.6,    9.1,    9.5,   10.2,   10.9,   11.5,   11.3,   11.5,   11.6,   10.6,   11.2,   11.5,   11.6,   10.8,   10.3,  999.0,   12.2,   12.5,   12.7,  999.0,  999.0,  999.0,  999.0,  999.0,  999.0,  999.0,  999.0,  999.0,  999.0,   55.3,   55.1,   55.2,   55.2,   55.2,   55.2,   55.2,   55.2,   55.2,   55.3,   55.2,   55.2,   55.3,   55.4,   55.3,   55.3,   55.3,   55.3,   55.2,   55.1,   55.3,   55.3,   55.2,   55.6,   55.3,   55.3,  999.0,   55.3,   55.4,  999.0,   55.4,  999.0
2005/10/22 08:50,  999.0,    2.9,    7.6,    9.1,   10.2,   10.8,   11.4,   12.4,   12.6,   12.8,   11.1,   10.2,   10.9,   10.9,   11.5,   11.5,   11.9,   11.8,   11.8,   10.9,   10.7,   11.1,   12.5,   12.3,   13.7,  999.0,  999.0,  999.0,  999.0,  999.0,  999.0,   55.2,   55.2,   55.3,  999.0,   55.2,   55.2,   55.2,   55.2,   55.2,   55.1,   55.3,   55.2,   55.2,   55.3,   55.4,   55.2,   55.4,   55.4,   55.2,   55.3,   55.5,   55.5,   55.6,   55.2,   55.1,   55.4,   55.3,   55.1,  999.0,  999.0,  999.0,  999.0
2005/10/22 09:00,  999.0,    4.1,    7.8,    9.7,   11.3,   11.6,   12.7,   12.8,   12.6,   12.9,   12.0,   11.0,   10.6,   10.6,   11.3,   12.9,   13.0,   13.5,   12.1,    9.8,   10.0,   10.1,   10.4,   12.0,   13.3,   14.1,   14.2,  999.0,  999.0,  999.0,  999.0,  999.0,  999.0,   55.3,  999.0,   55.2,   55.2,   55.2,   55.3,   55.2,   55.3,   55.3,   55.2,   55.3,   55.4,   55.3,   55.2,   55.3,   55.4,   55.3,   55.4,   55.5,   55.5,   55.5,   55.3,   55.3,   55.5,   55.1,   55.3,   55.6,  999.0,  999.0,   55.5
2005/10/22 09:10,  999.0,    6.0,    5.6,  999.0,  999.0,   11.7,   12.4,   12.2,   13.5,   12.4,   11.3,   10.8,   10.8,   11.1,   11.5,   12.6,   13.8,   13.2,   13.4,   12.0,   10.4,   10.4,   10.5,   11.3,   12.6,   13.6,   14.7,   15.2,  999.0,  999.0,  999.0,  999.0,  999.0,  999.0,  999.0,  999.0,  999.0,   55.2,   55.2,   55.2,   55.2,   55.3,   55.3,   55.5,   55.4,   55.4,   55.4,   55.5,   55.4,   55.3,   55.3,   55.7,   55.2,  999.0,   56.0,  999.0,  999.0,  999.0,  999.0,  999.0,  999.0,  999.0,  999.0
2005/10/22 09:20,  999.0,  999.0,  999.0,  999.0,   10.1,   11.6,   12.7,   12.1,   11.4,   10.8,   10.8,   11.6,   12.0,   12.4,   13.4,   13.8,   14.2,   14.9,   14.7,   13.7,   13.5,   12.7,   11.2,  999.0,   11.3,   13.0,   15.0,   16.1,  999.0,  999.0,  999.0,  999.0,  999.0,  999.0,  999.0,  999.0,  999.0,   55.3,   55.2,   55.1,   55.2,   55.3,   55.2,   55.3,   55.3,   55.4,   55.3,   55.4,   55.2,   55.3,   55.3,   55.2,   55.3,   55.2,   55.3,   55.3,   55.3,   55.5,  999.0,   55.6,  999.0,  999.0,   55.2
2005/10/22 09:30,  999.0,   11.0,   13.7,   10.2,    9.9,   10.2,   10.1,   11.9,    9.6,   10.4,   10.9,   12.1,   14.2,   13.9,   14.3,   13.9,   15.9,   16.7,   15.3,   13.5,   12.2,   10.8,   10.7,   10.6,   11.7,   12.7,   14.3,   15.0,   15.5,  999.0,  999.0,  999.0,  999.0,  999.0,  999.0,  999.0,  999.0,   55.3,   55.2,   55.3,   55.3,   55.2,   55.2,   55.3,   55.3,   55.4,   55.2,   55.4,   55.5,   55.3,   55.2,  999.0,  999.0,   55.1,   55.2,   55.6,  999.0,  999.0,   55.7,  999.0,  999.0,  999.0,  999.0
2005/10/22 09:40,  999.0,    7.0,    8.1,   10.3,   10.2,    9.4,   10.2,   13.0,   12.3,   10.0,   13.4,   12.4,   14.3,   13.5,   13.7,   15.6,   14.6,   14.1,   14.0,   12.0,   10.4,   10.1,   10.3,   11.3,   12.7,   13.9,   14.7,   15.1,   14.9,  999.0,  999.0,  999.0,  999.0,  999.0,  999.0,  999.0,   55.2,   55.2,   55.2,   55.2,   55.3,   55.3,   55.3,   55.3,   55.3,   55.4,   55.4,   55.4,   55.4,   55.4,   55.2,   55.4,   55.5,  999.0,   55.2,  999.0,  999.0,   55.4,  999.0,  999.0,  999.0,   55.7,  999.0
2005/10/22 09:50,  999.0,    7.9,    8.6,    9.2,   10.9,   10.9,    8.2,    9.8,   11.4,   11.0,   10.6,   11.0,   12.4,   11.9,   11.8,   14.2,   14.0,   13.6,   12.1,   10.7,   10.7,   11.3,   13.1,   13.5,   14.0,   14.4,   14.1,   14.4,   15.1,  999.0,  999.0,  999.0,  999.0,  999.0,  999.0,  999.0,  999.0,  999.0,   55.2,   55.2,   55.2,   55.2,   55.2,   55.3,   55.2,   55.3,   55.3,   55.2,   55.3,   55.4,  999.0,   55.4,   55.6,  999.0,   55.4,  999.0,  999.0,  999.0,  999.0,  999.0,  999.0,  999.0,  999.0
2005/10/22 10:00,  999.0,    6.8,    5.9,    7.9,   10.5,    9.9,   10.3,   10.4,   10.5,   11.2,   11.7,   12.3,   12.4,   12.5,   13.0,   14.1,   13.7,   12.1,   11.0,   11.5,   12.8,   14.2,   14.9,   16.0,   12.6,   11.2,   13.2,   13.6,   13.5,  999.0,  999.0,  999.0,  999.0,  999.0,  999.0,  999.0,  999.0,  999.0,  999.0,  999.0,  999.0,  999.0,   55.2,   55.3,   55.1,   55.3,   55.3,   55.3,   55.4,   55.5,   55.5,   55.4,   55.5,   55.3,   55.5,   55.3,   55.6,  999.0,   55.6,  999.0,  999.0,   55.6,  999.0
2005/10/22 10:10,  999.0,    6.0,    5.6,    6.6,    9.4,    9.3,    9.9,    9.9,   10.0,   11.3,   11.9,   12.5,   12.3,   12.4,   12.9,   13.6,   13.5,   12.9,   13.3,   14.6,   16.2,   17.3,   17.8,   16.4,   14.5,   13.2,   11.3,   12.0,   12.6,   12.5,   12.4,   13.0,   18.1,  999.0,  999.0,  999.0,  999.0,  999.0,  999.0,  999.0,   55.1,   55.3,   55.2,   55.2,   55.3,   55.4,   55.5,   55.4,   55.3,   55.5,   55.7,   55.4,   55.5,   55.6,   55.3,   55.5,  999.0,  999.0,  999.0,  999.0,  999.0,  999.0,  999.0
2005/10/22 10:20,  999.0,    6.8,    7.8,    7.4,    7.5,    7.9,    7.7,    8.1,    8.0,    9.9,    9.8,   12.4,   13.3,   12.8,   12.0,   11.7,   12.0,   13.0,   14.0,   15.5,   17.4,   18.5,   18.3,   17.7,   15.9,  999.0,   11.7,   10.2,   10.2,   10.9,   12.5,   14.0,   17.6,   20.4,  999.0,  999.0,  999.0,  999.0,  999.0,  999.0,   55.3,   55.3,   55.4,   55.5,   55.4,   55.5,   55.5,   55.3,   55.5,   55.4,   55.5,   55.3,   55.5,   54.7,  999.0,  999.0,  999.0,  999.0,  999.0,  999.0,  999.0,  999.0,  999.0
2005/10/22 10:30,  999.0,    3.2,    2.6,    5.8,    7.4,    7.7,    7.0,    6.9,    7.1,    9.5,   10.5,   11.6,   13.0,   13.7,   13.5,   13.0,   13.5,   14.2,   15.2,   16.3,   17.6,   19.1,   18.9,   17.4,   15.4,   14.2,   11.9,   11.0,   11.7,   12.6,  999.0,  999.0,  999.0,  999.0,  999.0,  999.0,  999.0,  999.0,  999.0,  999.0,   55.2,   55.2,   55.2,   55.3,   55.3,   55.3,   55.4,   55.3,   55.4,   55.3,   55.4,   55.5,   55.5,   55.4,   55.3,   55.5,   55.4,   55.5,  999.0,   55.3,   55.2,  999.0,  999.0
2005/10/22 10:40,  999.0,    3.3,    3.0,    5.1,    5.6,    6.6,    7.0,    6.2,    5.9,    6.6,    7.6,    9.8,   10.3,   12.3,   12.2,   14.7,   15.3,   16.0,   16.7,   18.4,   20.0,   19.6,   18.5,   16.8,   14.6,   13.1,   12.1,   12.7,   13.0,  999.0,   14.6,  999.0,  999.0,  999.0,  999.0,  999.0,  999.0,  999.0,  999.0,  999.0,   55.3,   55.3,   55.3,   55.4,   55.4,   55.3,   55.4,   55.3,   55.5,   55.4,   55.4,   55.5,   55.1,   55.5,   55.7,   55.5,   55.6,  999.0,  999.0,  999.0,   55.6,   55.4,  999.0
2005/10/22 10:50,  999.0,    1.8,    2.1,    1.5,    3.6,    5.3,    5.2,    6.0,    5.9,    7.0,    8.3,    8.3,   10.5,   11.2,   13.2,   15.6,   16.5,   16.3,   18.5,   19.7,   20.4,   19.9,   18.4,   15.9,   14.3,   11.7,   12.7,   13.4,   12.6,  999.0,  999.0,  999.0,  999.0,  999.0,  999.0,  999.0,  999.0,  999.0,  999.0,  999.0,   55.2,   55.3,   55.3,   55.3,   55.3,   55.3,   55.4,   55.3,   55.5,   55.3,   55.7,   55.5,   55.5,   55.5,   55.2,  999.0,  999.0,   55.5,  999.0,  999.0,  999.0,  999.0,  999.0
2005/10/22 11:00,  999.0,    1.7,    2.0,    1.5,    3.1,    5.0,    5.8,    5.2,    4.3,    5.9,    7.8,    9.4,   10.7,   11.0,   12.0,  999.0,  999.0,   15.8,   17.9,   18.7,   18.0,   17.7,   15.8,   14.2,   12.5,   13.9,  999.0,  999.0,  999.0,  999.0,  999.0,  999.0,  999.0,  999.0,  999.0,  999.0,  999.0,  999.0,  999.0,   55.2,   55.2,   55.2,   55.3,   55.3,   55.3,   55.3,   55.4,   55.4,   55.3,   55.5,   55.5,  999.0,   55.6,   55.3,   55.4,   55.6,   55.2,   55.0,   55.5,  999.0,  999.0,  999.0,  999.0
2005/10/22 11:10,  999.0,    1.5,    1.7,    1.6,    1.6,    3.4,    4.2,    4.3,    4.3,    6.9,    8.1,    9.9,   11.7,   12.9,   14.3,   15.7,   16.7,   18.6,   19.9,   19.3,   18.1,   18.0,   17.7,   15.5,   13.3,   13.6,  999.0,   15.3,  999.0,  999.0,  999.0,  999.0,  999.0,  999.0,  999.0,  999.0,  999.0,  999.0,  999.0,  999.0,  999.0,  999.0,   55.3,   55.4,   55.4,   55.3,   55.4,   55.3,   55.5,   55.5,   55.3,   55.4,   55.4,   55.6,   55.5,   55.6,  999.0,   55.8,  999.0,  999.0,  999.0,  999.0,  999.0
2005/10/22 11:20,  999.0,    1.2,    1.6,    1.2,    1.6,    3.9,    4.3,    4.2,    4.6,    7.5,    8.9,   11.0,   13.5,   14.6,   14.9,   16.3,   18.1,   19.9,   20.5,  999.0,   16.3,   16.2,   15.9,   16.6,  999.0,  999.0,  999.0,  999.0,  999.0,  999.0,  999.0,  999.0,  999.0,   36.9,  999.0,  999.0,  999.0,  999.0,  999.0,  999.0,  999.0,  999.0,  999.0,   55.3,   55.2,   55.3,   55.4,   55.3,   55.3,   55.4,   55.4,   55.3,   55.6,  999.0,   55.4,   55.7,   55.7,   55.0,  999.0,   55.4,  999.0,  999.0,  999.0
2005/10/22 11:30,  999.0,    1.2,    1.6,    0.8,    2.1,    2.9,    3.5,    4.4,    5.2,    8.1,    9.6,   11.4,   12.1,   13.3,   14.0,   15.5,   17.5,   18.6,   18.8,  999.0,  999.0,  999.0,  999.0,   14.1,  999.0,  999.0,  999.0,  999.0,  999.0,  999.0,  999.0,  999.0,  999.0,  999.0,  999.0,  999.0,  999.0,  999.0,   55.2,   55.2,   55.3,   55.2,   55.4,   55.2,   55.3,   55.4,   55.4,   55.4,   55.3,   55.5,   55.4,   55.5,   55.6,   55.5,   55.4,   55.4,   55.5,   55.9,  999.0,  999.0,  999.0,  999.0,   55.9
2005/10/22 11:40,  999.0,    1.4,    2.0,    1.8,    2.5,    3.0,    3.6,    4.1,    5.6,    7.3,    9.5,   10.7,   11.7,   12.4,   12.8,   14.2,   15.2,   17.8,   18.3,   17.0,   15.9,   14.8,   15.1,   14.0,  999.0,  999.0,  999.0,  999.0,  999.0,  999.0,  999.0,  999.0,  999.0,  999.0,  999.0,  999.0,  999.0,  999.0,  999.0,   55.2,   55.2,   55.3,   55.3,   55.3,   55.3,   55.4,   55.4,   55.4,   55.4,   55.4,   55.5,   55.4,   55.4,   55.6,   55.5,   55.4,   55.6,   55.4,   55.7,   55.4,  999.0,   55.6,   55.3
2005/10/22 11:50,  999.0,    1.6,    1.5,    1.4,    3.1,    3.0,    2.7,    3.0,    4.7,    6.6,    8.0,    9.4,   10.7,   10.6,   12.0,   13.3,   14.5,   16.6,   16.9,   17.3,   16.3,   16.4,   16.7,   14.5,  999.0,  999.0,  999.0,  999.0,  999.0,  999.0,  999.0,  999.0,  999.0,  999.0,  999.0,  999.0,  999.0,  999.0,  999.0,   55.3,   55.3,   55.3,   55.3,   55.4,   55.4,   55.4,   55.4,   55.4,   55.4,   55.7,   55.3,   55.7,   55.5,   55.2,   55.5,  999.0,   55.3,  999.0,  999.0,  999.0,  999.0,  999.0,  999.0
2005/10/22 12:00,  999.0,    1.1,    1.4,    1.5,    4.0,    4.3,    3.4,    2.5,    4.5,    5.5,    8.1,    8.0,    9.3,   10.2,   11.4,   12.7,   13.5,   15.3,   17.0,   18.0,  999.0,   15.9,  999.0,  999.0,  999.0,  999.0,  999.0,  999.0,  999.0,  999.0,  999.0,  999.0,  999.0,   55.1,   55.2,  999.0,   55.2,   55.2,   55.2,   55.2,   55.3,   55.3,   55.2,   55.4,   55.4,   55.3,   55.4,   55.5,   55.4,   55.3,  999.0,   55.4,   55.3,  999.0,  999.0,   55.4,   55.3,   55.0,   55.2,   55.5,  999.0,   55.3,   55.4
2005/10/22 12:10,  999.0,    1.4,    1.9,    0.9,    4.5,    4.4,    4.0,    2.4,    2.6,    3.5,    4.2,    7.0,    8.2,    9.3,   10.9,   12.0,   13.4,   14.6,   15.8,   16.2,  999.0,  999.0,  999.0,  999.0,  999.0,  999.0,  999.0,  999.0,  999.0,  999.0,  999.0,  999.0,  999.0,  999.0,   55.1,   55.2,   55.2,   55.2,   55.2,   55.3,   55.3,   55.3,   55.2,   55.3,   55.2,   55.2,   55.3,   55.3,   55.3,   55.4,   55.4,   55.5,   55.5,   55.3,   55.5,   56.1,   55.6,   55.2,   55.6,   55.8,  999.0,  999.0,  999.0
2005/10/22 12:20,  999.0,    0.7,    1.1,    1.1,    3.8,    3.9,    3.2,    2.9,    3.2,    3.2,    3.8,    5.4,    8.7,    9.2,   11.3,   12.9,   13.9,   14.3,   16.2,  999.0,  999.0,  999.0,  999.0,  999.0,  999.0,  999.0,  999.0,  999.0,  999.0,   55.1,   55.2,   55.1,   55.2,   55.1,   55.1,   55.2,   55.2,   55.2,   55.2,   55.2,   55.2,   55.3,   55.2,   55.3,   55.2,   55.3,   55.4,   55.3,   55.6,   55.7,   55.3,   55.3,   55.5,   55.6,   55.7,  999.0,  999.0,  999.0,  999.0,  999.0,  999.0,  999.0,  999.0
2005/10/22 12:30,  999.0,    0.5,    0.4,    0.4,    2.3,    4.0,    3.8,    3.2,  999.0,    3.6,    3.1,    4.5,    8.2,   10.1,   11.7,   12.5,   12.5,  999.0,  999.0,  999.0,  999.0,  999.0,  999.0,  999.0,  999.0,   55.2,  999.0,   55.1,   55.2,   55.1,   55.1,   55.2,   55.2,   55.1,   55.2,   55.2,   55.2,   55.2,   55.2,   55.1,   55.3,   55.3,   55.3,   55.3,   55.3,   55.1,   55.3,   55.3,   55.3,   55.4,   55.3,   55.4,   55.7,   55.5,  999.0,   55.4,  999.0,  999.0,  999.0,  999.0,  999.0,  999.0,  999.0
2005/10/22 12:40,  999.0,    0.7,    0.7,    0.9,    2.1,    3.7,    3.3,    1.6,    1.5,    2.2,    2.1,    3.6,    5.2,    7.2,   10.2,   11.0,   11.0,   11.5,   12.6,   13.9,  999.0,  999.0,  999.0,  999.0,  999.0,   55.1,  999.0,  999.0,   55.1,   55.2,   55.2,   55.2,   55.2,   55.1,   55.2,   55.3,   55.2,   55.2,   55.2,   55.2,   55.4,   55.3,   55.2,   55.2,   55.3,   55.3,   55.3,   55.3,   55.5,   55.1,   55.4,   55.4,   55.3,   55.5,   55.5,   55.4,   55.9,  999.0,  999.0,  999.0,  999.0,  999.0,  999.0
2005/10/22 12:50,  999.0,   -0.8,   -0.6,   -0.4,   -0.9,   -0.6,   -1.1,    0.2,    0.7,    0.7,   -0.4,   -0.4,   -1.4,  999.0,  999.0,  999.0,  999.0,  999.0,  999.0,  999.0,  999.0,  999.0,  999.0,  999.0,  999.0,  999.0,  999.0,  999.0,  999.0,  999.0,   55.2,   55.2,   55.2,   55.2,   55.3,   55.3,   55.3,   55.2,   55.2,   55.2,   55.2,   55.3,   55.3,   55.4,   55.2,   55.3,   55.3,   55.3,   55.4,   55.5,   55.6,   55.6,   55.4,  999.0,  999.0,   55.2,  999.0,   55.1,   55.6,  999.0,   55.5,   55.3,  999.0
2005/10/22 13:00,  999.0,   -1.0,   -0.5,    0.4,   -0.3,   -1.1,   -1.2,   -0.8,   -0.3,   -0.4,   -1.4,   -2.4,   -4.1,   -5.2,   -6.0,   -5.8,   -6.6,   -6.2,  999.0,  999.0,  999.0,  999.0,  999.0,  999.0,  999.0,  999.0,  999.0,  999.0,  -55.2,  999.0,  -55.2,  -46.0,  -27.6,  -48.3,  -27.6,  -22.1,  -41.4,  -22.1,  -27.6,  -34.6,  -22.2,  -22.1,  -34.6,  -22.2,  -16.7,  -48.4,  -27.5,  -22.1,  -27.8,  -34.6,  -22.4,  -14.0,  -18.5,    0.2,   -9.3,  999.0,   18.6,  999.0,  -55.6,   55.6,   55.4,  999.0,  999.0
2005/10/22 13:10,  999.0,   -0.3,   -0.3,    0.5,   -0.2,   -0.9,   -1.5,   -0.7,   -1.3,   -2.0,   -2.5,   -3.6,   -5.2,   -5.4,   -5.7,   -5.8,   -7.0,   -8.3,  999.0,  999.0,  999.0,  999.0,  999.0,  999.0,  999.0,  999.0,  999.0,  -55.2,  -55.2,  -55.2,  -55.2,  -55.1,  -55.1,  -55.2,  -55.2,  -55.2,  -55.2,  -55.2,  -55.2,  -55.3,  -55.2,  -55.3,  -55.3,  -55.2,  -55.3,  -55.4,  -55.2,  -55.4,  -55.4,  -55.4,  -55.4,  -55.4,  -55.6,  -55.5,  -55.4,  -55.3,  -55.7,  -55.4,  -55.4,  -55.5,  -55.4,  -55.5,  -55.6
2005/10/22 13:20,  999.0,   -0.4,   -0.4,    0.5,   -1.0,   -2.1,   -2.8,   -1.6,   -1.3,   -1.2,   -2.6,   -3.4,   -5.4,   -6.3,   -6.9,   -6.7,   -6.3,  999.0,  999.0,  999.0,  999.0,  999.0,  999.0,  999.0,  999.0,  999.0,  999.0,  999.0,  -55.2,  -55.2,  -55.2,  -55.3,  -55.2,  -55.3,  -55.2,  -55.2,  -55.2,  -55.1,  -55.2,  -55.2,  -55.3,  -55.4,  -55.3,  -55.4,  -55.3,  -55.3,  -55.3,  -55.4,  -55.4,  -55.4,  -55.4,  -55.4,  -55.3,  -55.3,  -55.2,  -55.4,  -55.4,  -55.4,  999.0,  -55.4,  -55.3,  -55.1,  999.0
2005/10/22 13:30,  999.0,    0.2,   -0.1,    0.2,   -1.2,   -1.9,   -2.0,   -0.8,   -1.2,   -1.3,   -1.9,   -3.5,   -5.2,   -5.6,   -6.3,   -6.2,   -6.4,   -7.0,  999.0,  999.0,  999.0,  999.0,  999.0,  999.0,  999.0,  999.0,  999.0,  999.0,  -55.1,  999.0,  -55.2,  -55.1,  -55.3,  -55.2,  -55.2,  -55.2,  -55.2,  -55.2,  -55.2,  -55.2,  -55.2,  -55.2,  -55.3,  -55.3,  -55.3,  -55.3,  -55.3,  -55.5,  -55.4,  -55.4,  -55.3,  -55.5,  -55.6,  -55.3,  -55.5,  -55.4,  -55.4,  999.0,  -55.3,  999.0,  999.0,  999.0,  -55.9
2005/10/22 13:40,  999.0,   -1.1,   -0.9,    0.5,   -1.4,   -2.6,   -2.3,   -0.9,    0.1,    0.4,   -0.7,   -3.0,   -3.6,   -4.7,   -5.3,   -4.8,   -5.7,   -6.5,   -7.4,   -9.6,  -10.2,  999.0,  999.0,  999.0,  999.0,  999.0,  999.0,  999.0,  999.0,  999.0,  999.0,  999.0,  -55.1,  -55.2,  -55.2,  -55.2,  -55.1,  -55.2,  -55.2,  -55.2,  -55.2,  -55.3,  -55.1,  -55.2,  -55.2,  -55.2,  -55.3,  -55.4,  -55.3,  -55.3,  -55.3,  -55.8,  -55.2,  -55.3,  -55.2,  999.0,  -55.3,  -55.3,  999.0,  -55.4,  -55.2,  999.0,  999.0
2005/10/22 13:50,  999.0,  999.0,   -0.3,    0.8,    0.6,   -0.8,   -1.2,   -0.8,   -0.4,   -1.6,   -3.3,   -4.4,   -5.5,   -5.7,   -5.3,   -4.5,   -5.9,   -6.2,   -7.6,   -9.7,  999.0,  999.0,  999.0,  999.0,  999.0,  999.0,  999.0,  999.0,  999.0,  -55.2,  -55.1,  999.0,  -55.1,  -55.2,  -55.2,  -55.1,  -55.2,  -55.2,  -55.2,  -55.2,  -55.3,  -55.2,  -55.2,  -55.3,  -55.1,  -55.2,  -55.3,  -55.3,  -55.3,  -55.3,  -55.4,  -55.3,  -55.3,  -55.3,  -55.6,  -55.4,  -55.3,  -55.5,  -55.3,  -55.4,  -55.9,  999.0,  -55.1
2005/10/22 14:00,  999.0,  999.0,    0.0,    1.0,   -1.1,   -1.1,   -1.3,   -2.2,   -2.1,   -3.7,   -4.6,   -5.1,   -5.6,   -5.8,   -5.0,   -5.8,   -6.9,   -7.5,   -9.0,   -9.2,   -9.7,  999.0,  999.0,  999.0,  999.0,  999.0,  999.0,  999.0,  999.0,  999.0,  -55.2,  -55.1,  -55.1,  -55.2,  -55.2,  -55.2,  -55.2,  -55.2,  -55.2,  -55.2,  -55.3,  -55.3,  -55.2,  -55.3,  -55.2,  -55.4,  -55.1,  -55.3,  -55.2,  -55.1,  -55.3,  -55.2,  -55.5,  -55.2,  -55.2,  -55.1,  -55.1,  -54.9,  999.0,  999.0,  999.0,  999.0,  999.0
2005/10/22 14:10,  999.0,   -0.4,    0.2,    0.6,   -0.2,   -1.4,   -2.0,   -2.1,   -3.1,   -4.0,   -4.5,   -4.8,   -5.1,   -5.6,   -6.9,   -7.3,   -8.1,   -8.9,   -8.9,   -8.6,   -9.0,   -9.1,  -10.7,  999.0,  999.0,  999.0,  999.0,  999.0,  999.0,  999.0,  -55.1,  -55.2,  -55.2,  -55.2,  -55.1,  -55.2,  -55.2,  -55.1,  -55.2,  -55.3,  -55.2,  -55.2,  -55.3,  -55.2,  -55.2,  -55.2,  -55.4,  -55.1,  999.0,  999.0,  -55.5,  999.0,  -55.3,  -55.3,  999.0,  -55.2,  -55.5,  999.0,  999.0,  999.0,  999.0,  999.0,  999.0
2005/10/22 14:20,  999.0,   -0.2,    0.2,    0.7,   -0.4,   -0.8,   -1.7,   -1.4,   -2.4,   -3.0,   -4.3,   -5.2,   -5.7,   -6.9,   -7.7,   -8.1,   -8.3,   -8.9,   -8.5,   -7.5,   -7.7,   -8.6,  -10.1,  999.0,  999.0,  999.0,  999.0,  999.0,  999.0,  999.0,  -55.1,  -55.2,  -55.2,  -55.2,  -55.3,  -55.2,  -55.2,  -55.2,  -55.3,  -55.2,  -55.3,  -55.4,  -55.3,  -55.2,  -55.3,  -55.3,  -55.3,  -55.4,  -55.3,  -55.3,  -55.5,  -55.2,  -55.5,  -55.4,  999.0,  -55.1,  -55.4,  -55.3,  999.0,  999.0,  -55.4,  999.0,  999.0
2005/10/22 14:30,  999.0,   -0.5,   -1.0,    0.4,   -3.4,   -0.4,   -1.4,   -2.5,   -2.6,   -4.5,   -4.8,   -5.5,   -5.9,   -7.7,   -8.0,   -8.5,   -9.2,   -8.9,   -7.6,   -5.9,   -7.3,   -9.1,   -9.7,  -10.8,  999.0,  999.0,  999.0,  999.0,  999.0,  999.0,  999.0,  999.0,  -55.2,  -55.1,  -55.2,  -55.2,  -55.2,  -55.2,  -55.2,  -55.2,  -55.2,  -55.2,  -55.2,  -55.3,  -55.3,  -55.3,  -55.3,  -55.4,  -55.2,  -55.4,  -55.3,  -55.4,  -55.4,  -55.0,  -55.1,  -55.4,  -55.3,  -55.4,  999.0,  -55.5,  999.0,  999.0,  999.0
2005/10/22 14:40,  999.0,   -0.5,   -1.0,   -1.2,    0.4,   -0.5,   -1.8,   -2.2,   -3.7,   -5.2,   -6.1,   -6.9,   -7.0,   -7.7,   -7.8,   -7.9,   -7.9,   -8.6,   -8.1,   -7.6,   -8.6,  -11.4,  -10.2,  999.0,  999.0,  999.0,  999.0,  999.0,  -55.1,  -55.1,  -55.0,  -55.1,  -55.1,  -55.1,  -55.0,  -55.2,  -55.0,  -55.1,  -55.1,  -55.1,  -55.2,  -55.4,  -55.2,  -55.1,  -55.2,  -55.1,  -55.2,  -55.2,  -55.3,  -55.2,  -55.2,  -41.5,  -41.5,  -55.0,  -55.4,  -41.4,  -55.3,  -55.2,  999.0,  -55.5,  -55.3,  999.0,  -55.1
2005/10/22 14:50,  999.0,   -0.6,   -1.0,   -0.3,   -0.3,   -1.0,   -2.5,   -3.4,   -4.4,   -4.6,   -5.0,   -7.1,   -7.1,   -6.7,   -7.0,   -7.1,   -7.3,   -8.0,   -8.0,   -7.7,   -8.7,   -9.1,  999.0,  999.0,  999.0,  999.0,  999.0,  999.0,  -55.1,  999.0,  -55.2,  -55.2,  999.0,  -55.2,  -55.2,  -55.1,  -55.2,  -55.2,  -55.2,  -55.2,  -55.2,  999.0,  -55.2,  -55.2,  -55.3,  -55.4,  -55.2,  -55.2,  -55.3,  -55.3,  999.0,  999.0,  999.0,  999.0,  999.0,  -55.5,  -55.3,  -55.6,  -55.4,  -55.3,  -55.2,  999.0,  -55.5
2005/10/22 15:00,  999.0,   -0.8,    0.1,    1.0,    0.3,   -0.8,   -2.3,   -2.9,   -4.6,   -6.0,   -6.7,   -7.2,   -7.7,   -7.9,   -7.8,   -7.7,   -8.6,   -8.5,   -8.4,   -8.7,   -9.4,   -9.8,  -10.6,  999.0,  999.0,  999.0,  999.0,  999.0,  999.0,  999.0,  999.0,  -55.1,  -55.1,  -55.1,  -55.2,  -55.2,  -55.2,  -55.2,  -55.2,  -55.2,  -55.2,  -55.2,  -55.3,  -55.3,  -55.3,  -55.2,  -55.2,  -55.3,  -55.2,  -55.4,  -55.6,  -55.3,  -55.2,  -55.3,  -55.4,  -55.2,  -54.9,  999.0,  -55.0,  999.0,  999.0,  -55.4,  999.0
2005/10/22 15:10,  999.0,   -0.7,   -0.6,    1.1,   -0.1,   -1.0,   -3.0,   -1.3,   -3.9,   -5.2,   -6.2,   -6.4,   -7.7,   -8.0,   -8.5,   -8.6,   -9.0,   -8.0,   -8.5,   -8.7,  -10.0,   -9.7,   -9.7,  999.0,  999.0,  999.0,  999.0,  999.0,  999.0,  999.0,  999.0,  -55.1,  -55.2,  -55.1,  -55.1,  -55.0,  -55.2,  -55.2,  -55.2,  -55.1,  -55.0,  -55.2,  -55.2,  -55.3,  -55.2,  -55.1,  -55.2,  -55.1,  -55.3,  -55.1,  -55.4,  -55.4,  -55.2,  -55.4,  -55.2,  -55.2,  999.0,  -55.2,  -55.0,  -55.3,  -55.2,  -55.1,  -55.4
2005/10/22 15:20,  999.0,   -0.4,    0.1,    2.0,    0.2,   -1.3,   -2.2,   -2.7,   -3.8,   -4.5,   -5.7,   -6.5,   -7.4,   -7.9,   -8.2,   -8.8,   -8.6,   -8.5,   -8.2,   -9.3,  -10.3,  -11.1,  -11.0,  -12.0,  999.0,  999.0,  999.0,  999.0,  999.0,  999.0,  999.0,  999.0,  999.0,  999.0,  -55.2,  -55.0,  -55.1,  -55.1,  -55.0,  -55.1,  -55.2,  -55.2,  -55.1,  -55.2,  -55.2,  -55.1,  -55.2,  -55.2,  -55.3,  -55.2,  -55.3,  -55.2,  -55.2,  -55.4,  -55.3,  -55.3,  -55.3,  -55.3,  -55.3,  -55.3,  -55.4,  -55.3,  -55.5
2005/10/22 15:30,  999.0,   -0.2,   -0.0,    1.4,   -0.4,   -1.2,   -3.0,   -2.8,   -3.8,   -4.6,   -5.5,   -7.1,   -7.1,   -7.0,   -6.6,   -6.5,   -7.6,   -7.9,   -8.2,   -9.0,  -10.6,   -9.7,  999.0,  999.0,  999.0,  999.0,  999.0,  999.0,  999.0,  999.0,  999.0,  999.0,  999.0,  999.0,  999.0,  -55.0,  -55.1,  -55.2,  -55.2,  -55.1,  -55.2,  -55.2,  -55.3,  -55.2,  -55.3,  -55.1,  -55.3,  -55.3,  -55.4,  -55.3,  -55.2,  -55.4,  -55.5,  -55.3,  -55.3,  -55.4,  -55.5,  -55.3,  -55.2,  999.0,  999.0,  -55.4,  999.0
2005/10/22 15:40,  999.0,   -0.1,   -0.1,    1.4,    0.9,   -0.4,   -1.4,   -2.9,   -3.9,   -4.7,   -5.2,   -6.2,   -6.9,   -6.7,   -6.7,   -7.0,   -8.4,   -6.9,   -8.0,   -8.4,   -9.0,   -8.7,   -9.8,  -10.4,  999.0,  999.0,  999.0,  999.0,  999.0,  999.0,  999.0,  999.0,  999.0,  -55.1,  -55.1,  -55.1,  -55.1,  -55.1,  -55.1,  -55.2,  -55.2,  -55.1,  -55.2,  -55.1,  -55.1,  -55.1,  -55.2,  -55.2,  -55.2,  -55.3,  -55.5,  -55.3,  -55.3,  -55.2,  -55.2,  -55.2,  -55.2,  -55.4,  -55.2,  -55.2,  -55.3,  -55.2,  -55.5
2005/10/22 15:50,  999.0,   -0.6,   -0.3,    0.4,    0.2,   -0.8,   -1.3,   -2.6,   -3.8,   -4.7,   -5.7,   -6.6,   -7.4,   -7.3,   -7.8,   -7.6,   -8.3,   -7.8,   -8.2,  999.0,   -9.0,   -9.5,  -10.5,  -10.5,  -11.5,  999.0,  999.0,  999.0,  999.0,  999.0,  999.0,  999.0,  999.0,  999.0,  -55.1,  -55.1,  -55.2,  -55.2,  -55.0,  -55.2,  -55.1,  -55.2,  -55.2,  -55.2,  -55.1,  -55.1,  -55.3,  -55.2,  -55.2,  -55.3,  -55.1,  -55.2,  -55.3,  -55.4,  -55.3,  -55.4,  -55.3,  -55.4,  -55.4,  -55.4,  -55.3,  -55.2,  -55.5
2005/10/22 16:00,  999.0,   -1.0,    0.3,    0.6,   -0.1,   -1.0,   -1.6,   -1.8,   -3.3,   -5.0,   -5.4,   -5.8,   -8.5,  999.0,   -8.0,   -8.7,   -7.9,   -7.6,   -7.3,   -7.9,   -8.0,   -9.3,  -10.1,  -10.9,  -10.5,  999.0,  999.0,  999.0,  999.0,  999.0,  -55.0,  -55.1,  -55.1,  -55.0,  -55.1,  -55.1,  -55.1,  -55.1,  -55.2,  -55.2,  -55.1,  -55.1,  -55.2,  -55.2,  -55.2,  -55.1,  -55.1,  -55.2,  -55.2,  -55.1,  -55.3,  -55.2,  -55.3,  -55.2,  -55.3,  -55.1,  -55.8,  -55.5,  -55.2,  999.0,  -55.6,  -55.4,  -55.3
2005/10/22 16:10,  999.0,   -0.4,   -0.1,    0.5,   -0.4,   -0.9,   -2.4,   -2.8,   -3.2,   -3.9,   -5.8,   -5.1,  999.0,   -7.7,   -8.4,   -8.4,   -9.6,   -9.4,   -9.1,   -8.4,   -8.4,   -7.9,   -9.2,  -10.2,  -12.0,  -14.1,  999.0,  999.0,  999.0,  999.0,  999.0,  999.0,  -55.1,  -55.1,  -55.1,  -55.1,  -55.1,  -55.0,  -55.1,  -55.0,  -55.2,  -55.1,  -55.1,  -55.2,  -55.2,  -55.1,  -55.2,  -55.2,  -55.2,  -55.2,  -55.2,  -55.2,  -55.2,  -55.2,  -55.2,  -55.1,  -55.0,  -55.3,  -55.4,  -55.1,  -55.4,  -55.4,  -55.2
2005/10/22 16:20,  999.0,   -0.3,    0.4,    2.3,    0.7,   -1.4,   -2.5,   -1.9,   -3.8,   -4.5,   -6.1,   -7.1,   -8.1,   -8.4,   -8.0,   -8.3,   -9.6,  -10.4,   -9.7,   -8.6,   -8.0,   -7.6,   -8.8,   -9.9,  -11.3,  -14.1,  999.0,  999.0,  999.0,  999.0,  999.0,  999.0,  999.0,  -55.0,  -54.9,  -55.1,  999.0,  -55.1,  -54.9,  -54.9,  -55.1,  -55.1,  -55.1,  -55.1,  -54.9,  -55.1,  -55.1,  -55.2,  -55.0,  -55.2,  -55.3,  -55.1,  -55.0,  -55.1,  -55.2,  -55.1,  -55.1,  -54.9,  -55.0,  -55.1,  999.0,  -55.3,  -55.1
2005/10/22 16:30,  999.0,   -0.5,    0.2,    2.8,    0.7,   -1.0,   -4.8,   -5.2,   -5.0,   -4.9,   -6.9,   -7.0,   -7.4,   -7.9,   -7.9,   -8.0,   -8.7,   -9.5,   -9.4,   -9.8,   -9.7,   -9.0,   -9.0,  -10.1,  -12.3,  999.0,  999.0,  999.0,  999.0,  999.0,  999.0,  999.0,  -55.1,  -55.1,  -55.1,  -55.2,  -55.2,  -55.1,  -55.1,  -55.2,  -55.0,  -55.1,  -55.2,  -55.1,  -55.1,  -55.1,  -55.2,  -55.3,  -55.2,  -55.1,  -55.1,  -55.1,  -55.3,  -55.2,  -55.3,  -55.3,  -55.2,  -55.3,  -55.4,  -55.2,  -55.1,  -55.1,  -55.2
2005/10/22 16:40,  999.0,   -0.9,    0.2,    1.9,    0.2,   -1.3,  999.0,   -3.9,   -4.1,   -5.1,   -6.9,   -7.5,   -7.7,   -7.5,   -7.7,   -6.7,   -8.0,   -7.9,   -8.5,   -8.4,   -9.0,   -8.4,   -9.5,  999.0,  999.0,  999.0,  999.0,  999.0,  999.0,  999.0,  999.0,  -55.0,  -54.7,  -55.0,  -55.0,  -55.1,  -55.0,  -55.0,  -55.0,  -55.0,  -55.1,  -55.1,  -55.2,  -55.2,  -55.2,  -54.8,  -55.0,  -55.1,  -55.2,  -55.1,  -55.1,  -55.3,  -55.0,  -55.2,  -55.3,  -55.0,  -55.1,  -54.9,  -54.8,  -55.1,  -55.0,  -55.3,  -55.2
2005/10/22 16:50,  999.0,   -0.5,   -0.1,    2.4,    0.7,    0.1,   -0.5,   -2.8,  999.0,  999.0,   -6.5,   -7.0,   -7.5,   -7.6,   -6.7,   -6.5,   -7.3,   -7.2,   -7.1,   -7.9,   -8.5,   -9.2,   -9.4,  999.0,  999.0,  999.0,  999.0,  999.0,  999.0,  999.0,  999.0,  -54.6,  -54.8,  -55.1,  -54.8,  -54.8,  -55.1,  -54.8,  -54.7,  -55.2,  -55.1,  -54.9,  -54.9,  -55.1,  -54.6,  -55.0,  -55.0,  -54.9,  -54.9,  -55.1,  -54.5,  -54.8,  -54.9,  -55.0,  -54.9,  -55.0,  -54.9,  -55.0,  -54.9,  -55.2,  -55.3,  -54.9,  -55.2
2005/10/22 17:00,  999.0,   -0.2,    0.1,    1.1,   -0.0,   -0.6,   -1.0,   -2.6,   -3.7,   -4.6,   -5.1,   -6.3,   -6.2,   -6.7,   -6.9,   -6.8,   -8.2,   -8.0,   -8.7,   -9.3,   -9.2,   -9.5,  -10.0,  -11.1,  999.0,  999.0,  999.0,  999.0,  999.0,  999.0,  999.0,  999.0,  -54.7,  -54.8,  -54.8,  -54.7,  -54.9,  -55.0,  -54.9,  -54.8,  -54.9,  -54.9,  -54.8,  999.0,  -53.8,  -54.9,  -55.0,  -54.8,  -54.7,  -54.7,  -54.8,  -54.9,  -54.8,  999.0,  999.0,  -54.9,  -54.9,  -55.0,  -54.9,  -54.6,  -55.2,  -55.2,  -54.8
2005/10/22 17:10,  999.0,   -0.9,    0.6,    0.7,   -0.2,   -0.5,   -0.9,   -2.6,   -3.5,   -5.7,   -6.3,   -7.2,   -7.7,   -8.0,   -7.9,   -8.4,   -8.5,   -8.8,  -10.0,  -11.2,  -10.4,   -9.9,   -9.7,  -10.1,  -10.5,  999.0,  999.0,  999.0,  999.0,  999.0,  999.0,  -55.0,  -54.9,  -54.7,  -54.7,  -54.8,  -54.7,  999.0,  -54.7,  -54.8,  -54.4,  -54.6,  -54.8,  -54.7,  -54.9,  -54.7,  -54.7,  -55.0,  -54.7,  -54.9,  -54.8,  -54.8,  -54.9,  -54.3,  -54.9,  -54.8,  -54.9,  -54.6,  -54.8,  -54.9,  -54.6,  -54.5,  -54.9
2005/10/22 17:20,  999.0,   -0.5,   -0.6,    1.0,   -1.1,   -1.0,   -2.2,   -2.2,   -3.6,   -4.0,   -5.9,   -6.6,   -7.2,   -8.1,   -7.8,   -7.3,   -7.3,  999.0,   -9.5,  -10.0,  -10.3,   -9.9,   -9.8,  -10.4,  999.0,  999.0,  999.0,  999.0,  999.0,  999.0,  999.0,  999.0,  999.0,  -54.9,  -54.9,  -54.5,  -55.3,  999.0,  -54.6,  -55.0,  999.0,  -54.4,  -54.9,  -54.9,  999.0,  -54.9,  -55.0,  -55.1,  -54.8,  -54.9,  -55.2,  -54.7,  -54.7,  -55.0,  -55.1,  -55.0,  -55.2,  -54.9,  -54.9,  999.0,  -55.3,  999.0,  999.0
2005/10/22 17:30,  999.0,   -1.1,    0.1,    0.8,   -0.6,   -1.6,   -3.7,   -3.6,   -3.7,   -4.6,   -5.8,   -6.1,   -7.0,   -7.7,   -8.3,   -8.1,   -8.6,   -9.2,   -8.3,   -9.1,   -9.2,   -9.1,   -9.4,   -9.4,   -9.8,  999.0,  999.0,  999.0,  999.0,  999.0,  999.0,  999.0,  999.0,  -54.8,  -54.9,  -54.4,  -54.6,  -54.8,  -54.8,  999.0,  -54.8,  -54.7,  -54.1,  999.0,  -54.7,  -54.5,  -45.9,  -41.1,  -54.6,  -54.2,  -45.4,  -41.3,  999.0,  -54.8,  -27.3,  999.0,  -54.7,  -27.4,  -41.3,  999.0,  -54.8,  999.0,    0.1
2005/10/22 17:40,  999.0,   -2.3,  999.0,    1.7,    2.0,   -4.6,   -4.4,   -5.4,   -5.6,   -5.3,   -5.7,   -5.8,   -6.4,   -7.0,   -7.6,   -7.5,   -8.1,   -8.5,   -8.7,   -9.3,   -8.9,   -8.8,   -9.8,  -10.4,  -11.3,  999.0,  999.0,  999.0,  999.0,  999.0,  999.0,  999.0,  999.0,  -54.5,  999.0,  999.0,  -54.9,  -54.1,  -54.0,  -40.7,  -45.1,  -45.2,  -40.8,  -54.5,  -40.7,  -40.9,  -26.9,  -27.2,   -0.0,  -27.2,  -18.1,  -18.2,  -27.2,  -27.3,  999.0,  999.0,  -26.8,  -27.0,  -27.3,  -20.8,  -20.4,  -18.3,   -0.1
2005/10/22 17:50,  999.0,   -0.9,   -1.6,   -0.2,   -0.1,  999.0,   -3.3,   -2.9,   -5.0,   -3.9,   -5.3,   -5.5,   -6.1,   -5.9,   -6.5,   -6.7,   -7.5,   -7.7,   -8.7,   -8.7,   -8.3,   -8.3,   -9.1,  -10.1,  999.0,  999.0,  999.0,  999.0,  999.0,  999.0,  999.0,  999.0,  999.0,  999.0,  999.0,  999.0,  999.0,  999.0,  999.0,  999.0,  999.0,  999.0,  999.0,  999.0,  999.0,  999.0,    0.2,  999.0,  999.0,  999.0,  999.0,  999.0,  999.0,  999.0,  999.0,  999.0,  999.0,  -54.6,  999.0,  999.0,  999.0,  999.0,  999.0
2005/10/22 18:00,  999.0,   -0.7,   -1.5,   -1.5,   -0.8,  999.0,  999.0,   -3.5,   -3.9,   -4.9,   -5.8,   -6.3,   -6.4,   -6.2,   -6.3,   -6.6,   -7.3,   -7.7,   -8.1,   -8.2,   -8.1,   -8.2,   -9.0,  -10.1,  -10.5,  999.0,  999.0,  999.0,  999.0,  999.0,  999.0,  999.0,  999.0,  999.0,  999.0,  999.0,  999.0,  999.0,  999.0,  999.0,  999.0,  999.0,  999.0,  999.0,  999.0,  999.0,  999.0,  999.0,  999.0,   -0.7,  999.0,  999.0,    0.7,  999.0,  999.0,  999.0,  999.0,  999.0,  -54.2,  999.0,  999.0,  999.0,  999.0
2005/10/22 18:10,  999.0,   -1.2,   -1.8,   -0.9,   -1.4,  999.0,  999.0,   -3.9,   -5.0,   -5.9,   -6.0,   -6.3,   -6.4,   -7.2,   -7.4,   -7.4,   -8.6,   -8.2,   -8.2,   -8.5,   -9.6,  -10.4,   -9.8,  999.0,  999.0,  999.0,  999.0,  999.0,  999.0,  999.0,  999.0,  999.0,  999.0,  999.0,  999.0,  999.0,  999.0,  999.0,  -54.5,  -51.0,  999.0,  999.0,  999.0,  999.0,  -53.8,  -52.3,  -54.2,  999.0,  -53.9,  -53.8,  999.0,  -53.9,  -53.9,  999.0,  -26.7,  -28.6,  -28.9,  999.0,  -35.9,  -36.0,  999.0,  -35.8,  -36.3
2005/10/22 18:20,  999.0,   -1.8,   -1.8,   -2.8,   -4.1,   -5.8,   -3.6,   -4.6,   -5.1,   -6.2,   -6.0,   -6.1,   -6.8,   -7.7,   -8.1,   -7.3,   -7.5,   -7.2,   -8.2,  -10.2,  -10.7,   -9.9,   -9.7,  999.0,  999.0,  999.0,  999.0,  999.0,  999.0,  999.0,  999.0,  999.0,  999.0,  999.0,  999.0,  999.0,  999.0,  999.0,  999.0,  999.0,  999.0,  999.0,  999.0,  999.0,  999.0,  999.0,  999.0,  999.0,  999.0,  999.0,  999.0,  999.0,  999.0,  999.0,  999.0,  999.0,  999.0,  999.0,  999.0,  999.0,  999.0,  999.0,  999.0
2005/10/22 18:30,  999.0,   -1.9,  999.0,    2.4,   -5.4,  999.0,   -5.1,   -5.2,   -5.0,   -4.3,   -5.3,   -5.1,   -5.7,   -7.0,   -7.4,   -7.2,   -7.1,   -7.1,   -6.7,   -8.6,   -9.6,   -9.0,  999.0,  999.0,  999.0,  999.0,  999.0,  999.0,  999.0,  999.0,  999.0,  999.0,  999.0,  999.0,  999.0,  999.0,  999.0,  999.0,  999.0,  999.0,  999.0,  999.0,  999.0,  999.0,  999.0,  999.0,  999.0,  999.0,  999.0,  999.0,  999.0,  999.0,  999.0,  999.0,  999.0,  999.0,  999.0,  999.0,  999.0,  999.0,  999.0,  999.0,  999.0
2005/10/22 18:40,  999.0,  999.0,   -1.7,   -2.1,   -3.9,   -5.0,   -4.9,   -4.6,   -5.8,   -6.5,   -5.4,   -5.5,   -5.5,   -6.0,   -6.2,   -6.8,   -6.1,  999.0,   -7.5,   -7.6,   -8.5,   -8.2,  999.0,  999.0,  999.0,  999.0,  999.0,  999.0,  999.0,  999.0,  999.0,  999.0,  999.0,  999.0,  999.0,  999.0,  999.0,  999.0,  999.0,  999.0,  -10.2,  999.0,  999.0,  999.0,   -9.8,  999.0,  999.0,  999.0,  999.0,  999.0,  999.0,  999.0,  999.0,  999.0,  999.0,  999.0,  999.0,  999.0,  999.0,  999.0,  999.0,  999.0,    0.3
2005/10/22 18:50,  999.0,  999.0,   -2.4,  999.0,   -4.8,   -5.9,   -5.7,   -5.8,   -6.6,   -6.9,   -6.8,   -7.2,   -6.7,   -6.7,   -6.8,   -7.6,   -7.3,   -7.8,   -9.3,   -9.0,   -9.1,  999.0,  999.0,  999.0,  999.0,  999.0,  999.0,  999.0,  999.0,  999.0,  999.0,  999.0,  999.0,  999.0,  999.0,  999.0,  999.0,  999.0,  999.0,  999.0,  999.0,  999.0,  999.0,  999.0,  999.0,  999.0,  999.0,  999.0,  999.0,  999.0,  999.0,  999.0,  999.0,  999.0,  999.0,  999.0,  999.0,  999.0,  999.0,  999.0,  999.0,  999.0,  999.0
2005/10/22 19:00,  999.0,  999.0,   -3.7,  999.0,   -4.7,   -5.7,   -5.4,   -6.1,   -6.2,   -6.6,   -7.3,   -8.5,   -9.8,   -8.7,   -8.1,   -7.7,   -7.9,   -9.4,  -10.4,   -8.7,   -7.3,  999.0,  999.0,  999.0,  999.0,  999.0,  999.0,  999.0,  999.0,  999.0,  999.0,  999.0,  999.0,  999.0,  999.0,  999.0,  999.0,  999.0,  999.0,  999.0,  999.0,  999.0,  999.0,  999.0,  999.0,  999.0,  999.0,  999.0,  999.0,  999.0,  999.0,  999.0,  999.0,  999.0,  999.0,  999.0,  999.0,  999.0,  999.0,  999.0,  999.0,  999.0,  999.0
2005/10/22 19:10,  999.0,   -2.4,   -1.4,  999.0,  999.0,   -4.9,   -5.8,   -5.6,   -5.6,   -6.1,   -6.9,   -7.9,   -9.7,   -9.5,   -8.7,   -7.9,   -8.8,   -9.1,  999.0,   -7.4,  999.0,  999.0,  999.0,  999.0,  999.0,  999.0,  999.0,  999.0,  999.0,  999.0,  999.0,  999.0,  -34.7,  999.0,  999.0,  999.0,  999.0,  999.0,  -44.1,  -44.3,  999.0,  -46.6,  999.0,  -44.3,  999.0,  999.0,  999.0,  999.0,  999.0,  999.0,  999.0,  999.0,  999.0,  999.0,  999.0,  999.0,  999.0,  999.0,  999.0,  999.0,  999.0,  999.0,  999.0
2005/10/22 19:20,  999.0,   -2.2,   -3.5,   -3.2,  999.0,  999.0,   -4.6,   -4.9,   -5.5,   -6.1,   -5.8,   -8.2,   -7.4,   -8.9,   -8.5,   -7.9,   -9.9,   -9.0,  999.0,  999.0,  999.0,  999.0,  999.0,  999.0,  999.0,  999.0,  999.0,  999.0,  999.0,  999.0,  999.0,  999.0,  999.0,  999.0,  999.0,  999.0,  999.0,  999.0,  999.0,  999.0,  999.0,  999.0,  999.0,  999.0,  999.0,  999.0,  999.0,  999.0,  999.0,  999.0,  999.0,  999.0,  999.0,  999.0,    0.1,  999.0,  999.0,  999.0,  999.0,  999.0,  999.0,  999.0,  999.0
2005/10/22 19:30,  999.0,   -0.4,   -2.7,  999.0,  999.0,    1.6,    1.1,   -2.6,   -4.0,   -4.7,   -5.1,   -6.3,   -6.1,   -6.8,   -7.8,   -7.2,   -7.6,   -7.7,   -6.5,   -4.5,   -5.9,  999.0,  999.0,  999.0,  999.0,  999.0,  999.0,  999.0,  999.0,  999.0,  999.0,  999.0,  999.0,  999.0,  999.0,  999.0,  999.0,  999.0,  999.0,  999.0,  999.0,  999.0,  999.0,  999.0,  999.0,  999.0,  999.0,  999.0,  999.0,  999.0,  999.0,  999.0,  999.0,  999.0,  999.0,  999.0,  999.0,  999.0,  999.0,  999.0,  999.0,  999.0,  999.0
2005/10/22 19:40,  999.0,   -1.9,   -0.5,    1.1,   -1.2,   -1.6,   -3.8,   -4.4,   -4.4,   -4.7,   -6.1,   -6.1,   -7.5,   -6.9,   -7.3,   -7.7,   -8.9,   -7.0,   -7.3,   -6.6,  999.0,  999.0,  999.0,  999.0,  999.0,  999.0,  999.0,  999.0,  999.0,  999.0,  999.0,  999.0,  999.0,  999.0,  999.0,  999.0,  999.0,  999.0,  999.0,  999.0,  999.0,  999.0,  999.0,  999.0,   -0.3,  999.0,  999.0,  999.0,  999.0,  999.0,  999.0,  999.0,  999.0,  999.0,  999.0,  999.0,   -0.1,  999.0,  999.0,    0.4,  999.0,  999.0,  999.0
2005/10/22 19:50,  999.0,   -2.2,   -1.2,   -0.3,   -4.5,   -4.6,   -5.2,   -5.2,   -5.4,   -5.3,   -5.6,   -6.0,   -6.3,   -6.9,   -6.9,   -6.4,  999.0,   -6.1,  999.0,  999.0,  999.0,  999.0,  999.0,  999.0,  999.0,  999.0,  999.0,  999.0,  999.0,  999.0,  999.0,  999.0,  999.0,  999.0,  999.0,  999.0,  999.0,  999.0,  999.0,  999.0,  999.0,  999.0,  999.0,  999.0,  999.0,  999.0,  999.0,  999.0,  999.0,  999.0,  999.0,   -0.4,  999.0,  999.0,  999.0,  999.0,  999.0,  999.0,  999.0,  999.0,  999.0,  999.0,  999.0
2005/10/22 20:00,  999.0,   -1.8,   -2.0,   -0.5,   -4.1,   -4.1,   -4.2,   -5.0,   -4.4,   -4.5,   -5.2,  999.0,  999.0,  999.0,   -5.2,   -4.9,   -5.1,  999.0,  999.0,  999.0,  999.0,  999.0,  999.0,  999.0,  999.0,  999.0,  999.0,  999.0,  999.0,  999.0,  999.0,  999.0,  999.0,  999.0,  999.0,  999.0,  999.0,  999.0,  999.0,  999.0,  999.0,  999.0,  999.0,  999.0,  999.0,  999.0,  999.0,  999.0,  999.0,  999.0,  999.0,  999.0,  999.0,  999.0,  999.0,  999.0,  999.0,  999.0,  999.0,  999.0,  999.0,  999.0,  999.0
2005/10/22 20:10,  999.0,   -2.9,   -3.0,   -2.9,   -4.1,   -4.2,   -4.5,   -4.7,   -4.4,   -4.4,   -4.6,   -4.8,   -5.1,   -5.3,   -5.5,   -5.1,   -4.8,   -4.6,  999.0,  999.0,  999.0,  999.0,  999.0,  999.0,  999.0,  999.0,  999.0,  999.0,  999.0,  999.0,  999.0,  999.0,  999.0,  999.0,    3.0,  999.0,    0.2,  999.0,   -0.1,  999.0,    4.9,  999.0,   -0.0,   -6.1,  999.0,  -11.6,    4.6,   -6.5,  999.0,  999.0,  999.0,  999.0,   -0.2,  999.0,  999.0,  999.0,  999.0,   -0.2,  999.0,  999.0,  999.0,  999.0,   -0.0
2005/10/22 20:20,  999.0,   -3.1,   -1.5,   -2.5,   -3.7,   -5.2,   -5.1,   -5.0,   -4.8,   -4.5,   -3.6,   -3.4,   -3.8,   -4.6,   -5.0,   -5.8,   -4.4,   -3.6,   -3.7,  999.0,  999.0,  999.0,  999.0,  999.0,  999.0,  999.0,  999.0,  999.0,  999.0,  999.0,  999.0,  999.0,  999.0,  999.0,  999.0,  999.0,  999.0,  999.0,  999.0,  999.0,  -34.0,  999.0,  999.0,  999.0,  999.0,  999.0,  999.0,  999.0,  999.0,  999.0,  999.0,  999.0,  999.0,  999.0,  999.0,  -34.6,  -33.1,  -34.6,  999.0,  999.0,  999.0,  999.0,  999.0
2005/10/22 20:30,  999.0,   -2.1,   -3.0,   -3.9,   -4.5,   -4.6,  999.0,   -5.0,   -4.5,   -4.4,   -4.1,   -4.2,   -4.9,   -5.1,   -6.1,   -5.3,   -4.7,   -4.1,  999.0,   -4.6,  999.0,   -3.3,  999.0,  999.0,  999.0,  999.0,  999.0,  999.0,  999.0,  999.0,  999.0,  999.0,  999.0,  999.0,  999.0,  999.0,  999.0,  999.0,    0.3,  999.0,  999.0,  -16.9,  999.0,  999.0,  999.0,  999.0,  999.0,  999.0,  999.0,  999.0,  999.0,  999.0,  999.0,  999.0,  999.0,  999.0,  999.0,  999.0,  999.0,  999.0,  999.0,  999.0,  999.0
2005/10/22 20:40,  999.0,   -2.3,   -2.5,   -3.9,  999.0,   -5.1,   -4.2,   -3.9,   -3.5,   -3.0,   -3.4,   -3.8,   -4.1,   -4.2,   -3.9,   -3.7,   -3.4,   -2.9,   -3.1,   -3.2,   -3.6,   -2.9,   -3.3,  999.0,  999.0,  999.0,  999.0,  999.0,  999.0,  999.0,  999.0,  999.0,    0.2,   -8.5,  999.0,  -11.6,    0.1,   -8.6,  -17.1,  -12.0,  999.0,    0.2,  999.0,  999.0,  999.0,  999.0,  999.0,  999.0,  999.0,  999.0,  999.0,  999.0,  999.0,  999.0,  999.0,  999.0,  999.0,  999.0,  999.0,  999.0,  999.0,  999.0,   16.7
2005/10/22 20:50,  999.0,   -2.7,   -1.8,   -3.8,   -4.9,  999.0,   -4.5,   -4.2,   -4.1,   -2.7,   -2.1,   -3.0,   -3.4,   -3.7,   -4.8,   -5.2,   -4.8,   -5.1,   -4.2,   -4.1,   -4.0,   -3.9,   -3.8,  999.0,  999.0,  999.0,  999.0,  999.0,  999.0,  999.0,  999.0,  999.0,  999.0,  999.0,  999.0,  999.0,  999.0,  999.0,  999.0,  999.0,  999.0,  999.0,  999.0,  999.0,  999.0,  999.0,  999.0,   -0.1,    0.1,  999.0,  999.0,  999.0,  999.0,  999.0,  999.0,  999.0,  999.0,  999.0,  999.0,  999.0,  999.0,  999.0,  999.0
2005/10/22 21:00,  999.0,   -1.9,   -2.0,   -3.6,   -5.0,   -4.8,  999.0,   -3.5,   -4.0,   -3.6,   -2.9,   -1.8,   -2.0,   -2.2,   -2.3,   -3.7,   -4.3,   -4.4,   -4.7,   -4.6,   -4.0,   -3.9,   -3.7,   -3.0,   -2.5,  999.0,  999.0,  999.0,  999.0,  999.0,  999.0,  999.0,  999.0,  999.0,  999.0,  999.0,  999.0,  999.0,  999.0,  999.0,  999.0,  999.0,  999.0,  999.0,  999.0,  999.0,  999.0,    0.0,  -12.0,  999.0,    0.1,    0.1,  999.0,  999.0,  999.0,  999.0,  999.0,  999.0,  999.0,  999.0,  999.0,  999.0,    0.2
2005/10/22 21:10,  999.0,   -3.6,   -3.0,   -3.7,   -5.0,   -2.5,   -2.3,   -3.2,   -2.5,   -3.6,   -3.5,   -3.3,   -2.6,   -2.5,   -3.3,   -4.7,   -4.7,   -4.3,   -4.9,  999.0,   -3.4,   -3.3,   -3.4,   -3.6,  999.0,  999.0,  999.0,  999.0,  999.0,  999.0,  999.0,  999.0,  999.0,  999.0,  999.0,  999.0,  999.0,  999.0,  999.0,  999.0,  999.0,  999.0,  999.0,  999.0,  999.0,  999.0,  999.0,  999.0,  999.0,  999.0,  999.0,  999.0,  999.0,  999.0,  999.0,  999.0,  999.0,  999.0,  999.0,  999.0,  999.0,  999.0,  999.0
2005/10/22 21:20,  999.0,   -2.7,   -3.1,   -5.3,   -4.5,   -3.9,   -4.4,   -3.3,   -2.5,   -2.8,   -3.1,   -3.7,   -3.2,   -3.0,   -3.0,   -3.7,   -4.3,   -4.3,   -4.7,   -4.6,   -3.7,   -2.7,   -2.7,  999.0,  999.0,   -2.1,  999.0,  999.0,  999.0,  999.0,  999.0,  999.0,  999.0,  999.0,    0.5,  999.0,  999.0,  999.0,  999.0,    0.4,  999.0,  999.0,   -0.2,  -21.4,  -22.3,  999.0,  999.0,  999.0,  999.0,   -0.2,  999.0,  999.0,  999.0,  999.0,  999.0,  999.0,  999.0,  999.0,  999.0,   -0.1,  999.0,    0.3,  999.0
2005/10/22 21:30,  999.0,   -2.6,   -3.0,   -4.0,   -3.7,   -4.2,   -3.4,   -2.6,   -2.5,   -2.1,   -3.2,   -4.0,   -4.2,   -4.1,   -4.1,   -4.8,   -4.6,   -4.4,   -3.9,   -3.1,   -2.9,   -3.1,  999.0,  999.0,  999.0,   -1.3,   -1.7,   -2.0,  999.0,  999.0,  999.0,  999.0,  999.0,  999.0,  999.0,  999.0,  999.0,  999.0,  999.0,  999.0,  999.0,  999.0,  999.0,  999.0,  999.0,  999.0,  999.0,  999.0,  999.0,  999.0,  999.0,  999.0,  999.0,  999.0,  999.0,  999.0,  999.0,  999.0,  999.0,  999.0,  999.0,  999.0,  999.0
2005/10/22 21:40,  999.0,   -3.1,   -3.5,   -5.1,   -4.3,   -3.7,   -3.6,   -2.4,   -2.6,   -2.7,   -3.2,   -4.1,   -4.9,   -5.0,   -5.2,   -5.5,   -4.8,   -4.4,   -3.3,   -2.3,   -1.8,   -2.6,    0.2,   -0.5,   -0.1,    0.1,   -1.1,  999.0,  999.0,  999.0,  999.0,  999.0,  999.0,  999.0,  999.0,  999.0,  999.0,  999.0,  999.0,  999.0,  999.0,  999.0,    0.0,  999.0,  999.0,  999.0,  999.0,  999.0,  999.0,  999.0,  999.0,  999.0,  999.0,  999.0,  999.0,  999.0,  999.0,  999.0,  999.0,  999.0,  999.0,  999.0,  999.0
2005/10/22 21:50,  999.0,   -3.4,   -4.0,   -4.4,   -4.6,   -2.5,   -4.2,   -3.1,   -2.1,   -2.5,   -3.5,   -3.7,   -5.0,   -5.2,   -5.6,   -5.9,   -5.7,   -4.6,   -4.3,   -3.5,   -3.1,   -2.2,   -1.4,   -1.7,   -0.8,   -0.4,   -1.1,  999.0,  999.0,  999.0,  999.0,  999.0,  999.0,  999.0,  999.0,  999.0,  999.0,  999.0,  999.0,  999.0,  999.0,  999.0,  999.0,  999.0,  999.0,  999.0,  999.0,  999.0,  999.0,  999.0,  999.0,  999.0,  999.0,  999.0,  999.0,  999.0,  999.0,  999.0,  999.0,  999.0,  999.0,  999.0,  999.0
2005/10/22 22:00,  999.0,  999.0,   -3.7,   -4.6,   -4.2,   -4.4,   -4.0,   -3.1,   -2.8,   -1.8,   -2.3,   -2.6,   -3.7,   -4.3,   -4.6,   -5.3,   -5.1,   -4.7,   -4.5,   -3.4,   -3.4,   -3.2,   -2.9,  999.0,  999.0,  999.0,  999.0,  999.0,  999.0,  999.0,  999.0,  999.0,  999.0,  999.0,  999.0,  999.0,  999.0,  999.0,  999.0,  999.0,  999.0,  999.0,  999.0,  999.0,  999.0,  999.0,  999.0,  999.0,  999.0,  999.0,  999.0,  999.0,  999.0,  999.0,  999.0,  999.0,  999.0,  999.0,  999.0,    0.1,  999.0,  999.0,  999.0
2005/10/22 22:10,  999.0,   -2.5,   -4.4,   -5.4,   -4.4,   -5.0,   -4.3,   -3.4,   -3.2,   -3.3,   -2.7,   -2.4,   -2.6,   -2.8,   -3.5,   -4.4,   -4.9,   -4.4,   -3.0,   -3.1,   -2.7,   -2.7,   -2.6,   -2.6,   -2.6,   -2.8,  999.0,  999.0,  999.0,  999.0,  999.0,  999.0,  999.0,  999.0,  999.0,  999.0,  999.0,  999.0,  999.0,  999.0,  999.0,  999.0,  999.0,  999.0,  999.0,  999.0,  999.0,  999.0,  999.0,  999.0,  999.0,  999.0,  999.0,  999.0,  999.0,  999.0,    0.3,  999.0,  999.0,  999.0,  999.0,  999.0,  999.0
2005/10/22 22:20,  999.0,   -3.5,   -5.4,   -5.7,  999.0,  999.0,   -4.4,   -4.4,   -3.3,   -5.1,   -3.9,   -4.2,   -3.4,   -3.3,  999.0,  999.0,  999.0,   -4.3,   -3.2,   -3.4,  999.0,   -3.9,  999.0,  999.0,  999.0,  999.0,  999.0,  999.0,  999.0,  999.0,  999.0,  999.0,  999.0,  999.0,  999.0,  999.0,  999.0,  999.0,  999.0,  999.0,  999.0,  999.0,  999.0,   -0.0,  999.0,    0.0,  999.0,  -16.8,    0.2,   -0.0,    0.3,  999.0,    0.2,  999.0,    0.2,  999.0,   -0.4,  -17.2,    0.0,   -5.2,    0.9,   -0.4,    0.4
2005/10/22 22:30,  999.0,   -2.9,   -5.0,   -5.5,  999.0,   -4.4,   -4.3,   -3.9,   -3.9,   -3.8,   -3.1,   -3.0,   -3.4,   -3.2,   -3.4,   -3.6,   -3.5,   -4.3,   -3.7,   -2.9,  999.0,  999.0,   -2.1,   -0.9,   -1.5,   -1.9,   -2.0,  999.0,  999.0,  999.0,  999.0,  999.0,   -1.5,   -1.0,  999.0,  999.0,  999.0,  999.0,  999.0,  999.0,   -1.0,   -0.1,  999.0,  999.0,  999.0,  999.0,  999.0,  999.0,   -0.6,  999.0,  999.0,  999.0,  999.0,   -0.4,  999.0,  999.0,  999.0,  999.0,   -0.2,  999.0,  999.0,   -5.6,  999.0
2005/10/22 22:40,  999.0,   -1.6,   -3.5,   -3.3,   -4.7,   -5.4,   -5.1,   -4.2,   -3.9,   -4.3,   -4.3,   -3.9,   -3.1,   -2.7,   -3.2,   -2.7,  999.0,   -3.6,   -3.9,   -3.6,  999.0,  999.0,   -1.4,   -1.7,   -1.8,   -2.1,   -1.3,  999.0,  999.0,  999.0,  999.0,  999.0,  999.0,  999.0,  999.0,  999.0,  999.0,  999.0,  999.0,    0.1,    0.2,    0.2,   -0.4,  999.0,  999.0,    0.0,    0.5,  999.0,  999.0,  999.0,    0.0,    0.2,    0.1,   -0.2,    0.1,   -0.0,  999.0,  999.0,    0.2,   -0.0,  999.0,  999.0,   -0.3
2005/10/22 22:50,  999.0,   -2.2,   -2.2,   -2.7,   -3.2,   -4.4,   -5.0,   -5.1,   -4.5,   -5.1,   -4.8,   -4.3,   -3.9,   -3.6,   -4.1,   -4.5,   -3.5,   -4.1,   -4.6,   -4.7,  999.0,  999.0,   -1.5,  999.0,  999.0,  999.0,  999.0,  999.0,  999.0,  999.0,  999.0,  999.0,  999.0,  999.0,  999.0,  999.0,  999.0,  999.0,  999.0,  999.0,   -0.8,    0.4,    0.3,    0.2,   -0.0,   -0.5,   -0.1,    0.3,    0.4,   -0.2,   -0.4,    0.4,   -0.1,    0.2,  999.0,    0.3,    0.6,  999.0,   -0.3,   -0.1,  999.0,    0.1,    0.3
2005/10/22 23:00,  999.0,  999.0,   -0.1,  999.0,   -1.2,   -4.6,   -4.9,   -2.3,   -5.5,   -5.3,   -5.4,   -5.6,   -4.8,   -5.0,   -5.7,   -5.8,   -5.2,   -3.9,   -4.9,   -5.2,   -5.2,   -5.2,   -3.8,  999.0,  999.0,  999.0,  999.0,  999.0,  999.0,  999.0,  999.0,  999.0,  999.0,  999.0,  999.0,    0.1,  999.0,  999.0,    0.1,    0.2,  999.0,    0.3,   -0.1,  999.0,   -0.2,    0.4,  999.0,  999.0,    0.1,  999.0,  999.0,    0.3,  999.0,   -0.3,   -0.0,  999.0,   -0.1,   -0.1,    0.1,  999.0,   -0.1,    0.2,    0.4
2005/10/22 23:10,  999.0,   -1.3,  999.0,  999.0,   -3.5,   -6.3,   -6.8,   -7.0,   -7.3,   -7.4,   -7.6,   -7.6,   -6.9,   -7.1,   -6.0,   -6.1,   -5.7,   -5.6,   -6.2,   -5.6,   -5.8,   -5.6,   -5.3,  999.0,  999.0,  999.0,  999.0,  999.0,  999.0,  999.0,  999.0,  999.0,  999.0,    8.7,  999.0,  999.0,    0.4,  999.0,    0.6,    8.5,  999.0,   22.1,    0.4,    0.3,    8.3,    8.3,    0.7,    5.8,  999.0,    0.5,  999.0,  999.0,    5.7,  999.0,   -8.2,  999.0,   -7.8,    0.1,    0.0,   -0.4,  999.0,    0.1,  999.0
2005/10/22 23:20,  999.0,   -1.1,   -0.8,   -0.3,   -1.0,   -4.2,   -5.0,   -6.4,   -6.9,   -7.2,   -7.9,   -7.9,   -8.4,   -7.7,   -7.0,   -7.2,   -7.5,   -7.0,   -6.5,   -6.3,   -6.2,   -3.8,   -6.6,   -6.9,   -6.5,  999.0,  999.0,  999.0,  999.0,  999.0,  999.0,  999.0,  999.0,  999.0,  999.0,  999.0,  999.0,  999.0,  999.0,    0.2,  999.0,  999.0,  999.0,  999.0,  999.0,   -4.0,  999.0,    4.3,   -2.6,  999.0,  999.0,  999.0,    0.8,   -2.3,   -8.3,   -1.2,   -4.1,   -2.2,   -7.2,  999.0,   -0.3,  999.0,  -11.2
2005/10/22 23:30,  999.0,   -1.2,  999.0,  999.0,   -3.3,   -5.6,   -7.8,   -7.2,   -7.6,   -8.0,   -8.1,   -7.1,  999.0,   -7.5,   -6.8,   -6.8,   -7.4,   -7.2,   -6.7,   -6.1,   -6.1,   -6.1,   -5.8,   -5.5,  999.0,  999.0,  999.0,  999.0,  999.0,  999.0,  999.0,  999.0,  999.0,  999.0,  999.0,  999.0,  999.0,  999.0,    8.3,  999.0,  999.0,  999.0,  999.0,  999.0,  999.0,  999.0,  999.0,  999.0,   16.0,  999.0,   16.5,   10.8,  999.0,    4.2,    0.1,  999.0,  999.0,  999.0,  999.0,  999.0,  999.0,   -0.1,  999.0
2005/10/22 23:40,  999.0,  999.0,  999.0,  999.0,   -9.7,   -8.8,   -8.5,   -8.7,   -8.6,   -8.6,   -8.7,   -8.2,   -8.0,   -7.6,   -7.1,   -7.0,   -7.4,   -7.3,   -7.1,   -7.1,   -6.5,   -6.2,   -5.7,   -5.1,   -5.2,   -5.0,  999.0,  999.0,  999.0,  999.0,  999.0,  999.0,  999.0,  999.0,  999.0,  999.0,  999.0,  999.0,  999.0,  999.0,  999.0,    1.3,  999.0,  999.0,  999.0,  999.0,  999.0,  999.0,    0.9,  999.0,  999.0,  999.0,    0.1,  999.0,  999.0,  999.0,  999.0,    0.4,  999.0,  999.0,  999.0,  999.0,  999.0
2005/10/22 23:50,  999.0,  -11.0,  -11.5,  -11.4,  -10.7,  -10.4,   -9.5,   -9.4,   -9.0,   -8.9,   -8.6,   -8.4,   -8.4,   -8.3,   -8.8,   -9.1,   -8.8,   -7.9,   -7.1,   -6.0,   -5.2,   -4.9,   -4.6,   -4.0,   -3.8,  999.0,  999.0,  999.0,  999.0,  999.0,  999.0,  999.0,  999.0,  999.0,  999.0,  999.0,  999.0,  999.0,  999.0,  999.0,  999.0,  999.0,  999.0,  999.0,  999.0,  999.0,  999.0,  999.0,  999.0,  999.0,  999.0,  999.0,  999.0,  999.0,  999.0,  999.0,  999.0,  999.0,  999.0,  999.0,  999.0,  999.0,  999.0
